| time (UTC) | temp F | wind direction | speed MPH | gust MPH | rain 1hr in | rain 24hr in | rain mn in | humidity % | barometer mb |
| 20260507140403 | 51 | 0 | 0.0 | 0.0 | 0.00 | 0.44 | 0.22 | 67 | 1013.4 |
| 20260507140203 | 51 | 0 | 0.0 | 0.0 | 0.00 | 0.45 | 0.22 | 68 | 1013.4 |
| 20260507140110 | 50 | 349 | 0.0 | 0.0 | 0.00 | 0.00 | 0.22 | 67 | 1013.9 |
| 20260507140016 | 50 | 349 | 0.0 | 0.0 | 0.00 | 0.00 | 0.22 | 67 | 1013.9 |
| 20260507140004 | 51 | 0 | 0.0 | 0.0 | 0.00 | 0.45 | 0.22 | 68 | 1013.4 |
| 20260507135903 | 51 | 349 | 0.0 | 0.0 | 0.00 | 0.45 | 0.22 | 69 | 1013.8 |
| 20260507135803 | 51 | 0 | 0.0 | 0.0 | 0.00 | 0.45 | 0.22 | 69 | 1013.3 |
| 20260507135603 | 51 | 0 | 0.0 | 0.0 | 0.00 | 0.45 | 0.22 | 69 | 1013.4 |
| 20260507135403 | 51 | 349 | 0.0 | 0.0 | 0.00 | 0.46 | 0.22 | 68 | 1013.8 |
| 20260507135203 | 51 | 0 | 0.0 | 0.0 | 0.00 | 0.46 | 0.22 | 68 | 1013.4 |
| 20260507135003 | 51 | 0 | 0.0 | 2.0 | 0.00 | 0.46 | 0.22 | 69 | 1013.5 |
| 20260507134902 | 51 | 349 | 0.0 | 2.0 | 0.00 | 0.47 | 0.22 | 69 | 1013.9 |
| 20260507134803 | 51 | 0 | 0.0 | 1.0 | 0.00 | 0.46 | 0.22 | 70 | 1013.5 |
| 20260507134603 | 50 | 0 | 0.0 | 5.0 | 0.00 | 0.47 | 0.22 | 70 | 1013.5 |
| 20260507134525 | 50 | 304 | 0.0 | 0.0 | 0.00 | 0.00 | 0.22 | 70 | 1013.9 |
| 20260507134203 | 50 | 0 | 0.0 | 0.0 | 0.00 | 0.47 | 0.22 | 71 | 1013.4 |
| 20260507133902 | 50 | 345 | 0.0 | 0.0 | 0.00 | 0.48 | 0.22 | 67 | 1013.8 |
| 20260507133603 | 50 | 0 | 1.0 | 0.0 | 0.00 | 0.48 | 0.22 | 72 | 1013.4 |
| 20260507133403 | 50 | 345 | 1.0 | 1.0 | 0.00 | 0.49 | 0.22 | 71 | 1013.5 |
| 20260507133203 | 50 | 331 | 1.0 | 10.0 | 0.00 | 0.49 | 0.22 | 71 | 1013.5 |
| 20260507133035 | 49 | 335 | 1.0 | 0.0 | 0.00 | 0.00 | 0.22 | 71 | 1013.9 |
| 20260507133004 | 50 | 0 | 0.0 | 10.0 | 0.00 | 0.49 | 0.22 | 70 | 1013.5 |
| 20260507132904 | 50 | 339 | 1.0 | 3.0 | 0.00 | 0.50 | 0.22 | 72 | 1013.9 |
| 20260507132803 | 50 | 0 | 0.0 | 3.0 | 0.00 | 0.49 | 0.22 | 71 | 1013.4 |
| 20260507132603 | 50 | 0 | 0.0 | 0.0 | 0.00 | 0.50 | 0.22 | 72 | 1013.4 |
| 20260507132203 | 50 | 0 | 0.0 | 0.0 | 0.00 | 0.50 | 0.22 | 77 | 1013.4 |
| 20260507131903 | 49 | 42 | 0.0 | 0.0 | 0.00 | 0.50 | 0.22 | 74 | 1013.8 |
| 20260507131803 | 49 | 0 | 0.0 | 0.0 | 0.00 | 0.50 | 0.22 | 75 | 1013.4 |
| 20260507131603 | 49 | 0 | 0.0 | 0.0 | 0.00 | 0.50 | 0.22 | 74 | 1013.4 |
| 20260507131542 | 49 | 43 | 0.0 | 0.0 | 0.00 | 0.00 | 0.22 | 74 | 1013.8 |
| 20260507131507 | 49 | 42 | 0.0 | 0.0 | 0.00 | 0.00 | 0.22 | 74 | 1013.8 |
| 20260507131403 | 49 | 43 | 0.0 | 0.0 | 0.00 | 0.51 | 0.22 | 73 | 1013.8 |
| 20260507131203 | 49 | 0 | 0.0 | 0.0 | 0.00 | 0.51 | 0.22 | 74 | 1013.5 |
| 20260507131004 | 49 | 0 | 0.0 | 0.0 | 0.00 | 0.51 | 0.22 | 77 | 1013.5 |
| 20260507130804 | 49 | 0 | 0.0 | 0.0 | 0.00 | 0.51 | 0.22 | 77 | 1013.3 |
| 20260507130604 | 49 | 0 | 0.0 | 0.0 | 0.00 | 0.51 | 0.22 | 73 | 1013.3 |
| 20260507130203 | 49 | 0 | 0.0 | 0.0 | 0.00 | 0.52 | 0.22 | 76 | 1013.2 |
| 20260507130049 | 48 | 5 | 0.0 | 0.0 | 0.00 | 0.00 | 0.22 | 77 | 1013.6 |
| 20260507130027 | 48 | 5 | 0.0 | 0.0 | 0.00 | 0.00 | 0.22 | 78 | 1013.6 |
| 20260507130003 | 49 | 0 | 0.0 | 0.0 | 0.00 | 0.52 | 0.22 | 78 | 1013.1 |
| 20260507125903 | 49 | 3 | 0.0 | 0.0 | 0.00 | 0.52 | 0.22 | 78 | 1013.6 |
| 20260507125804 | 49 | 0 | 0.0 | 0.0 | 0.00 | 0.52 | 0.22 | 78 | 1013.2 |
| 20260507125604 | 49 | 0 | 0.0 | 0.0 | 0.00 | 0.52 | 0.22 | 78 | 1013.2 |
| 20260507125403 | 48 | 3 | 0.0 | 0.0 | 0.00 | 0.52 | 0.22 | 77 | 1013.5 |
| 20260507125204 | 48 | 0 | 0.0 | 0.0 | 0.00 | 0.52 | 0.22 | 76 | 1013.2 |
| 20260507125003 | 48 | 0 | 0.0 | 0.0 | 0.00 | 0.52 | 0.22 | 77 | 1013.1 |
| 20260507124902 | 48 | 4 | 0.0 | 0.0 | 0.00 | 0.52 | 0.22 | 80 | 1013.5 |
| 20260507124804 | 48 | 0 | 0.0 | 0.0 | 0.00 | 0.52 | 0.22 | 79 | 1013.1 |
| 20260507124605 | 48 | 5 | 0.0 | 0.0 | 0.00 | 0.00 | 0.22 | 80 | 1013.5 |
| 20260507124603 | 48 | 0 | 0.0 | 0.0 | 0.00 | 0.52 | 0.22 | 80 | 1013.1 |
| 20260507124523 | 48 | 360 | 0.0 | 0.0 | 0.00 | 0.00 | 0.22 | 79 | 1013.5 |
| 20260507124404 | 48 | 0 | 0.0 | 0.0 | 0.00 | 0.52 | 0.22 | 79 | 1013.1 |
| 20260507124204 | 48 | 0 | 0.0 | 0.0 | 0.00 | 0.52 | 0.22 | 81 | 1013.1 |
| 20260507124003 | 48 | 0 | 0.0 | 3.0 | 0.00 | 0.52 | 0.22 | 81 | 1013.1 |
| 20260507123903 | 48 | 3 | 1.0 | 3.0 | 0.00 | 0.52 | 0.22 | 80 | 1013.5 |
| 20260507123803 | 48 | 0 | 0.0 | 3.0 | 0.00 | 0.52 | 0.22 | 81 | 1013.1 |
| 20260507123603 | 48 | 0 | 0.0 | 0.0 | 0.00 | 0.52 | 0.22 | 84 | 1013.2 |
| 20260507123403 | 48 | 297 | 0.0 | 0.0 | 0.00 | 0.53 | 0.22 | 84 | 1013.7 |
| 20260507123203 | 48 | 0 | 0.0 | 0.0 | 0.00 | 0.53 | 0.22 | 84 | 1013.2 |
| 20260507123038 | 47 | 296 | 0.0 | 0.0 | 0.00 | 0.00 | 0.22 | 84 | 1013.6 |
| 20260507123004 | 48 | 0 | 0.0 | 0.0 | 0.00 | 0.53 | 0.22 | 83 | 1013.2 |
| 20260507122903 | 48 | 297 | 0.0 | 0.0 | 0.00 | 0.53 | 0.22 | 82 | 1013.6 |
| 20260507122603 | 47 | 0 | 0.0 | 0.0 | 0.00 | 0.53 | 0.22 | 83 | 1013.1 |
| 20260507122403 | 47 | 300 | 0.0 | 0.0 | 0.00 | 0.53 | 0.22 | 83 | 1013.5 |
| 20260507122004 | 47 | 0 | 0.0 | 0.0 | 0.00 | 0.53 | 0.22 | 85 | 1013.1 |
| 20260507121903 | 47 | 300 | 0.0 | 0.0 | 0.00 | 0.53 | 0.22 | 87 | 1013.5 |
| 20260507121803 | 47 | 0 | 0.0 | 0.0 | 0.00 | 0.53 | 0.22 | 88 | 1013.1 |
| 20260507121604 | 47 | 0 | 0.0 | 0.0 | 0.00 | 0.53 | 0.22 | 87 | 1013.0 |
| 20260507121531 | 47 | 292 | 0.0 | 0.0 | 0.00 | 0.00 | 0.22 | 86 | 1013.5 |
| 20260507121404 | 47 | 0 | 0.0 | 0.0 | 0.00 | 0.53 | 0.22 | 87 | 1013.1 |
| 20260507121204 | 47 | 0 | 0.0 | 2.0 | 0.00 | 0.53 | 0.22 | 87 | 1013.1 |
| 20260507120903 | 47 | 344 | 0.0 | 0.0 | 0.00 | 0.53 | 0.22 | 88 | 1013.4 |
| 20260507120603 | 47 | 0 | 0.0 | 0.0 | 0.00 | 0.53 | 0.22 | 88 | 1013.0 |
| 20260507120403 | 47 | 344 | 0.0 | 0.0 | 0.00 | 0.53 | 0.22 | 90 | 1013.4 |
| 20260507120040 | 46 | 309 | 0.0 | 0.0 | 0.00 | 0.00 | 0.22 | 90 | 1013.5 |
| 20260507120010 | 46 | 309 | 0.0 | 0.0 | 0.00 | 0.00 | 0.22 | 91 | 1013.5 |
| 20260507120003 | 47 | 0 | 0.0 | 0.0 | 0.00 | 0.53 | 0.22 | 91 | 1013.3 |
| 20260507115903 | 47 | 309 | 0.0 | 0.0 | 0.00 | 0.53 | 0.22 | 91 | 1013.6 |
| 20260507115804 | 47 | 0 | 0.0 | 0.0 | 0.00 | 0.53 | 0.22 | 91 | 1013.2 |
| 20260507115603 | 47 | 0 | 0.0 | 0.0 | 0.00 | 0.53 | 0.22 | 91 | 1013.1 |
| 20260507115203 | 47 | 0 | 0.0 | 0.0 | 0.00 | 0.53 | 0.22 | 90 | 1013.0 |
| 20260507115004 | 47 | 0 | 0.0 | 0.0 | 0.00 | 0.53 | 0.22 | 90 | 1013.0 |
| 20260507114903 | 47 | 310 | 0.0 | 0.0 | 0.00 | 0.53 | 0.22 | 90 | 1013.4 |
| 20260507114804 | 47 | 0 | 0.0 | 0.0 | 0.00 | 0.53 | 0.22 | 90 | 1013.1 |
| 20260507114603 | 47 | 0 | 0.0 | 0.0 | 0.00 | 0.53 | 0.22 | 91 | 1013.0 |
| 20260507114556 | 46 | 309 | 0.0 | 0.0 | 0.00 | 0.00 | 0.22 | 91 | 1013.3 |
| 20260507114513 | 46 | 309 | 0.0 | 0.0 | 0.00 | 0.00 | 0.22 | 91 | 1013.4 |
| 20260507114403 | 47 | 0 | 0.0 | 0.0 | 0.00 | 0.53 | 0.22 | 91 | 1013.0 |
| 20260507114204 | 47 | 0 | 0.0 | 0.0 | 0.00 | 0.53 | 0.22 | 91 | 1013.0 |
| 20260507114004 | 47 | 0 | 0.0 | 0.0 | 0.00 | 0.53 | 0.22 | 91 | 1013.0 |
| 20260507113903 | 47 | 308 | 0.0 | 0.0 | 0.00 | 0.53 | 0.22 | 91 | 1013.5 |
| 20260507113804 | 47 | 0 | 0.0 | 0.0 | 0.00 | 0.53 | 0.22 | 91 | 1013.1 |
| 20260507113604 | 47 | 0 | 0.0 | 0.0 | 0.00 | 0.53 | 0.22 | 91 | 1013.1 |
| 20260507113404 | 47 | 0 | 0.0 | 0.0 | 0.00 | 0.53 | 0.22 | 92 | 1013.1 |
| 20260507113203 | 47 | 0 | 0.0 | 0.0 | 0.00 | 0.53 | 0.22 | 92 | 1013.0 |
| 20260507113031 | 47 | 308 | 0.0 | 0.0 | 0.00 | 0.00 | 0.22 | 92 | 1013.3 |
| 20260507112903 | 47 | 308 | 0.0 | 0.0 | 0.00 | 0.53 | 0.22 | 92 | 1013.3 |
| 20260507112803 | 47 | 0 | 0.0 | 0.0 | 0.00 | 0.53 | 0.22 | 93 | 1012.9 |
| 20260507112604 | 47 | 0 | 0.0 | 0.0 | 0.00 | 0.53 | 0.22 | 93 | 1012.9 |
| 20260507112403 | 47 | 308 | 0.0 | 0.0 | 0.00 | 0.53 | 0.22 | 92 | 1013.2 |
| 20260507112203 | 47 | 0 | 0.0 | 0.0 | 0.00 | 0.53 | 0.22 | 93 | 1012.8 |
| 20260507112003 | 47 | 0 | 0.0 | 0.0 | 0.00 | 0.53 | 0.22 | 93 | 1012.9 |
| 20260507111902 | 47 | 309 | 0.0 | 0.0 | 0.00 | 0.53 | 0.22 | 93 | 1013.1 |
| 20260507111603 | 47 | 0 | 0.0 | 0.0 | 0.00 | 0.53 | 0.22 | 93 | 1012.7 |
| 20260507111537 | 47 | 313 | 0.0 | 0.0 | 0.00 | 0.00 | 0.22 | 93 | 1013.0 |
| 20260507111403 | 47 | 0 | 0.0 | 0.0 | 0.00 | 0.53 | 0.22 | 94 | 1012.6 |
| 20260507111204 | 47 | 0 | 0.0 | 0.0 | 0.00 | 0.53 | 0.22 | 94 | 1012.8 |
| 20260507111003 | 47 | 0 | 0.0 | 0.0 | 0.00 | 0.53 | 0.22 | 93 | 1012.8 |
| 20260507110903 | 47 | 313 | 0.0 | 0.0 | 0.00 | 0.53 | 0.22 | 93 | 1013.1 |
| 20260507110803 | 47 | 0 | 0.0 | 0.0 | 0.00 | 0.53 | 0.22 | 93 | 1012.8 |
| 20260507110603 | 47 | 0 | 0.0 | 0.0 | 0.00 | 0.53 | 0.22 | 93 | 1012.6 |
| 20260507110403 | 47 | 0 | 0.0 | 0.0 | 0.00 | 0.53 | 0.22 | 93 | 1012.5 |
| 20260507110043 | 47 | 313 | 0.0 | 0.0 | 0.00 | 0.00 | 0.22 | 94 | 1012.7 |
| 20260507110008 | 47 | 313 | 0.0 | 0.0 | 0.00 | 0.00 | 0.22 | 94 | 1012.7 |
| 20260507110004 | 47 | 0 | 0.0 | 0.0 | 0.00 | 0.53 | 0.22 | 94 | 1012.3 |
| 20260507105903 | 47 | 313 | 0.0 | 0.0 | 0.00 | 0.53 | 0.22 | 94 | 1012.7 |
| 20260507105803 | 47 | 0 | 0.0 | 0.0 | 0.00 | 0.53 | 0.22 | 94 | 1012.4 |
| 20260507105604 | 47 | 0 | 0.0 | 0.0 | 0.00 | 0.53 | 0.22 | 94 | 1012.4 |
| 20260507105405 | 47 | 0 | 0.0 | 0.0 | 0.00 | 0.53 | 0.22 | 94 | 1012.4 |
| 20260507105203 | 47 | 0 | 0.0 | 0.0 | 0.00 | 0.53 | 0.22 | 94 | 1012.6 |
| 20260507105004 | 47 | 0 | 0.0 | 0.0 | 0.00 | 0.53 | 0.22 | 94 | 1012.6 |
| 20260507104903 | 47 | 313 | 0.0 | 0.0 | 0.00 | 0.53 | 0.22 | 94 | 1013.0 |
| 20260507104805 | 47 | 0 | 0.0 | 0.0 | 0.00 | 0.53 | 0.22 | 94 | 1012.6 |
| 20260507104604 | 47 | 0 | 0.0 | 0.0 | 0.00 | 0.53 | 0.22 | 94 | 1012.6 |
| 20260507104547 | 47 | 313 | 0.0 | 0.0 | 0.00 | 0.00 | 0.22 | 94 | 1012.9 |
| 20260507104511 | 47 | 313 | 0.0 | 0.0 | 0.00 | 0.00 | 0.22 | 94 | 1013.0 |
| 20260507104403 | 47 | 0 | 0.0 | 0.0 | 0.12 | 0.53 | 0.22 | 94 | 1012.6 |
| 20260507104203 | 47 | 0 | 0.0 | 0.0 | 0.12 | 0.53 | 0.22 | 94 | 1012.5 |
| 20260507104003 | 47 | 0 | 0.0 | 0.0 | 0.12 | 0.53 | 0.22 | 94 | 1012.5 |
| 20260507103903 | 47 | 313 | 0.0 | 0.0 | 0.00 | 0.53 | 0.22 | 94 | 1012.9 |
| 20260507103804 | 47 | 0 | 0.0 | 0.0 | 0.12 | 0.53 | 0.22 | 94 | 1012.5 |
| 20260507103603 | 47 | 0 | 0.0 | 0.0 | 0.12 | 0.53 | 0.22 | 94 | 1012.4 |
| 20260507103403 | 47 | 0 | 0.0 | 0.0 | 0.12 | 0.53 | 0.22 | 94 | 1012.4 |
| 20260507103203 | 47 | 0 | 0.0 | 0.0 | 0.12 | 0.53 | 0.22 | 94 | 1012.3 |
| 20260507103055 | 47 | 313 | 0.0 | 0.0 | 0.00 | 0.00 | 0.22 | 93 | 1012.6 |
| 20260507103020 | 47 | 313 | 0.0 | 0.0 | 0.00 | 0.00 | 0.22 | 93 | 1012.6 |
| 20260507103003 | 47 | 0 | 0.0 | 0.0 | 0.12 | 0.53 | 0.22 | 93 | 1012.2 |
| 20260507102903 | 47 | 313 | 0.0 | 0.0 | 0.00 | 0.53 | 0.22 | 93 | 1012.6 |
| 20260507102804 | 47 | 0 | 0.0 | 0.0 | 0.12 | 0.53 | 0.22 | 93 | 1012.2 |
| 20260507102603 | 47 | 0 | 0.0 | 0.0 | 0.12 | 0.53 | 0.22 | 94 | 1012.1 |
| 20260507102403 | 47 | 313 | 0.0 | 0.0 | 0.00 | 0.53 | 0.22 | 94 | 1012.4 |
| 20260507102003 | 47 | 0 | 0.0 | 0.0 | 0.12 | 0.53 | 0.22 | 94 | 1011.9 |
| 20260507101903 | 47 | 318 | 0.0 | 0.0 | 0.00 | 0.53 | 0.22 | 94 | 1012.3 |
| 20260507101803 | 47 | 0 | 0.0 | 0.0 | 0.12 | 0.53 | 0.22 | 94 | 1012.0 |
| 20260507101616 | 47 | 318 | 0.0 | 0.0 | 0.00 | 0.00 | 0.22 | 94 | 1012.4 |
| 20260507101604 | 47 | 0 | 0.0 | 0.0 | 0.12 | 0.53 | 0.22 | 94 | 1012.0 |
| 20260507101519 | 47 | 318 | 0.0 | 0.0 | 0.00 | 0.00 | 0.22 | 94 | 1012.4 |
| 20260507101403 | 47 | 0 | 0.0 | 0.0 | 0.12 | 0.53 | 0.22 | 94 | 1012.0 |
| 20260507100803 | 47 | 0 | 0.0 | 0.0 | 0.12 | 0.53 | 0.22 | 94 | 1012.1 |
| 20260507100604 | 47 | 0 | 0.0 | 0.0 | 0.12 | 0.53 | 0.22 | 94 | 1012.0 |
| 20260507100404 | 47 | 0 | 0.0 | 0.0 | 0.12 | 0.53 | 0.22 | 93 | 1012.0 |
| 20260507100203 | 47 | 0 | 0.0 | 0.0 | 0.12 | 0.53 | 0.22 | 93 | 1011.9 |
| 20260507100032 | 47 | 318 | 0.0 | 0.0 | 0.00 | 0.00 | 0.22 | 93 | 1012.2 |
| 20260507100003 | 47 | 0 | 0.0 | 0.0 | 0.12 | 0.53 | 0.22 | 93 | 1011.9 |
| 20260507095904 | 47 | 318 | 0.0 | 0.0 | 0.00 | 0.53 | 0.22 | 93 | 1012.2 |
| 20260507095803 | 47 | 0 | 0.0 | 0.0 | 0.12 | 0.53 | 0.22 | 93 | 1011.9 |
| 20260507095603 | 47 | 0 | 0.0 | 0.0 | 0.12 | 0.53 | 0.22 | 93 | 1012.0 |
| 20260507095403 | 47 | 0 | 0.0 | 0.0 | 0.12 | 0.53 | 0.22 | 93 | 1012.0 |
| 20260507095203 | 47 | 0 | 0.0 | 0.0 | 0.12 | 0.53 | 0.22 | 93 | 1011.9 |
| 20260507095003 | 47 | 0 | 0.0 | 0.0 | 0.12 | 0.53 | 0.22 | 93 | 1012.0 |
| 20260507094903 | 47 | 318 | 0.0 | 0.0 | 0.00 | 0.53 | 0.22 | 93 | 1012.2 |
| 20260507094604 | 53 | 0 | 0.0 | 0.0 | 0.00 | 0.41 | 0.10 | 93 | 1011.3 |
| 20260507094403 | 53 | 0 | 0.0 | 0.0 | 0.00 | 0.41 | 0.10 | 93 | 1011.3 |
| 20260507094203 | 53 | 0 | 0.0 | 0.0 | 0.00 | 0.41 | 0.10 | 93 | 1011.3 |
| 20260507094003 | 53 | 0 | 0.0 | 0.0 | 0.00 | 0.41 | 0.10 | 93 | 1011.3 |
| 20260507093903 | 47 | 318 | 0.0 | 0.0 | 0.00 | 0.53 | 0.22 | 92 | 1012.2 |
| 20260507093804 | 53 | 0 | 0.0 | 0.0 | 0.00 | 0.41 | 0.10 | 93 | 1011.3 |
| 20260507093604 | 53 | 0 | 0.0 | 0.0 | 0.00 | 0.41 | 0.10 | 93 | 1011.3 |
| 20260507093404 | 53 | 0 | 0.0 | 0.0 | 0.00 | 0.41 | 0.10 | 93 | 1011.3 |
| 20260507093003 | 53 | 0 | 0.0 | 0.0 | 0.00 | 0.41 | 0.10 | 93 | 1011.3 |
| 20260507092904 | 48 | 314 | 0.0 | 2.0 | 0.00 | 0.53 | 0.22 | 93 | 1012.3 |
| 20260507092803 | 53 | 0 | 0.0 | 0.0 | 0.00 | 0.41 | 0.10 | 93 | 1011.3 |
| 20260507092604 | 53 | 0 | 0.0 | 0.0 | 0.00 | 0.41 | 0.10 | 93 | 1011.3 |
| 20260507092404 | 48 | 339 | 0.0 | 0.0 | 0.00 | 0.53 | 0.22 | 92 | 1012.2 |
| 20260507092203 | 53 | 0 | 0.0 | 0.0 | 0.00 | 0.41 | 0.10 | 93 | 1011.3 |
| 20260507092003 | 53 | 0 | 0.0 | 0.0 | 0.00 | 0.41 | 0.10 | 93 | 1011.3 |
| 20260507091903 | 48 | 340 | 0.0 | 0.0 | 0.00 | 0.53 | 0.22 | 93 | 1012.1 |
| 20260507091803 | 53 | 0 | 0.0 | 0.0 | 0.00 | 0.41 | 0.10 | 93 | 1011.3 |
| 20260507091404 | 53 | 0 | 0.0 | 0.0 | 0.00 | 0.41 | 0.10 | 93 | 1011.3 |
| 20260507091204 | 53 | 0 | 0.0 | 0.0 | 0.00 | 0.41 | 0.10 | 93 | 1011.3 |
| 20260507091003 | 53 | 0 | 0.0 | 0.0 | 0.00 | 0.41 | 0.10 | 93 | 1011.3 |
| 20260507090904 | 49 | 340 | 0.0 | 0.0 | 0.00 | 0.53 | 0.22 | 94 | 1012.2 |
| 20260507090803 | 53 | 0 | 0.0 | 0.0 | 0.00 | 0.41 | 0.10 | 93 | 1011.3 |
| 20260507090604 | 53 | 0 | 0.0 | 0.0 | 0.00 | 0.41 | 0.10 | 93 | 1011.3 |
| 20260507090004 | 53 | 0 | 0.0 | 0.0 | 0.00 | 0.41 | 0.10 | 93 | 1011.3 |
| 20260507085903 | 50 | 268 | 0.0 | 0.0 | 0.00 | 0.53 | 0.22 | 95 | 1011.9 |
| 20260507085603 | 53 | 0 | 0.0 | 0.0 | 0.00 | 0.41 | 0.10 | 93 | 1011.3 |
| 20260507085403 | 50 | 31 | 0.0 | 0.0 | 0.00 | 0.53 | 0.22 | 95 | 1011.7 |
| 20260507085203 | 53 | 0 | 0.0 | 0.0 | 0.00 | 0.41 | 0.10 | 93 | 1011.3 |
| 20260507084903 | 50 | 31 | 0.0 | 0.0 | 0.00 | 0.53 | 0.22 | 95 | 1011.7 |
| 20260507084803 | 53 | 0 | 0.0 | 0.0 | 0.00 | 0.41 | 0.10 | 93 | 1011.3 |
| 20260507084603 | 53 | 0 | 0.0 | 0.0 | 0.00 | 0.41 | 0.10 | 93 | 1011.3 |
| 20260507084403 | 53 | 0 | 0.0 | 0.0 | 0.00 | 0.41 | 0.10 | 93 | 1011.3 |
| 20260507084204 | 53 | 0 | 0.0 | 0.0 | 0.00 | 0.41 | 0.10 | 93 | 1011.3 |
| 20260507084005 | 53 | 0 | 0.0 | 0.0 | 0.00 | 0.41 | 0.10 | 93 | 1011.3 |
| 20260507083903 | 50 | 31 | 0.0 | 0.0 | 0.00 | 0.53 | 0.22 | 95 | 1011.5 |
| 20260507083803 | 53 | 0 | 0.0 | 0.0 | 0.00 | 0.41 | 0.10 | 93 | 1011.3 |
| 20260507083603 | 53 | 0 | 0.0 | 0.0 | 0.00 | 0.41 | 0.10 | 93 | 1011.3 |
| 20260507083405 | 53 | 0 | 0.0 | 0.0 | 0.00 | 0.41 | 0.10 | 93 | 1011.3 |
| 20260507083203 | 53 | 0 | 0.0 | 0.0 | 0.00 | 0.41 | 0.10 | 93 | 1011.3 |
| 20260507083004 | 53 | 0 | 0.0 | 0.0 | 0.00 | 0.41 | 0.10 | 93 | 1011.3 |
| 20260507082903 | 50 | 31 | 0.0 | 0.0 | 0.00 | 0.53 | 0.22 | 95 | 1011.2 |
| 20260507082803 | 53 | 0 | 0.0 | 0.0 | 0.00 | 0.41 | 0.10 | 93 | 1011.3 |
| 20260507082603 | 53 | 0 | 0.0 | 0.0 | 0.00 | 0.41 | 0.10 | 93 | 1011.3 |
| 20260507082404 | 53 | 0 | 0.0 | 0.0 | 0.00 | 0.41 | 0.10 | 93 | 1011.3 |
| 20260507082203 | 53 | 0 | 0.0 | 0.0 | 0.00 | 0.41 | 0.10 | 93 | 1011.3 |
| 20260507082004 | 53 | 0 | 0.0 | 0.0 | 0.00 | 0.41 | 0.10 | 93 | 1011.3 |
| 20260507081903 | 50 | 31 | 0.0 | 0.0 | 0.00 | 0.53 | 0.22 | 95 | 1011.2 |
| 20260507081803 | 53 | 0 | 0.0 | 0.0 | 0.00 | 0.41 | 0.10 | 93 | 1011.3 |
| 20260507081604 | 53 | 0 | 0.0 | 0.0 | 0.00 | 0.41 | 0.10 | 93 | 1011.3 |
| 20260507081403 | 53 | 0 | 0.0 | 0.0 | 0.00 | 0.41 | 0.10 | 93 | 1011.3 |
| 20260507081203 | 53 | 0 | 0.0 | 0.0 | 0.00 | 0.41 | 0.10 | 93 | 1011.3 |
| 20260507080902 | 50 | 34 | 0.0 | 0.0 | 0.00 | 0.53 | 0.22 | 95 | 1011.3 |
| 20260507080804 | 53 | 0 | 0.0 | 0.0 | 0.00 | 0.41 | 0.10 | 93 | 1011.3 |
| 20260507080603 | 53 | 0 | 0.0 | 0.0 | 0.00 | 0.41 | 0.10 | 93 | 1011.3 |
| 20260507080405 | 53 | 0 | 0.0 | 0.0 | 0.00 | 0.41 | 0.10 | 93 | 1011.3 |
| 20260507080004 | 53 | 0 | 0.0 | 0.0 | 0.00 | 0.41 | 0.10 | 93 | 1011.3 |
| 20260507075903 | 49 | 34 | 0.0 | 0.0 | 0.01 | 0.53 | 0.22 | 95 | 1011.3 |
| 20260507075804 | 53 | 0 | 0.0 | 0.0 | 0.00 | 0.41 | 0.10 | 93 | 1011.3 |
| 20260507075603 | 53 | 0 | 0.0 | 0.0 | 0.00 | 0.41 | 0.10 | 93 | 1011.3 |
| 20260507075404 | 53 | 0 | 0.0 | 0.0 | 0.00 | 0.41 | 0.10 | 93 | 1011.3 |
| 20260507075203 | 53 | 0 | 0.0 | 0.0 | 0.00 | 0.41 | 0.10 | 93 | 1011.3 |
| 20260507074904 | 49 | 34 | 0.0 | 0.0 | 0.02 | 0.53 | 0.22 | 95 | 1011.1 |
| 20260507074803 | 53 | 0 | 0.0 | 0.0 | 0.00 | 0.41 | 0.10 | 93 | 1011.3 |
| 20260507074604 | 53 | 0 | 0.0 | 0.0 | 0.00 | 0.41 | 0.10 | 93 | 1011.3 |
| 20260507074404 | 53 | 0 | 0.0 | 0.0 | 0.00 | 0.41 | 0.10 | 93 | 1011.3 |
| 20260507074203 | 53 | 0 | 0.0 | 0.0 | 0.00 | 0.41 | 0.10 | 93 | 1011.3 |
| 20260507074003 | 53 | 0 | 0.0 | 0.0 | 0.00 | 0.41 | 0.10 | 93 | 1011.3 |
| 20260507073903 | 49 | 34 | 0.0 | 0.0 | 0.04 | 0.53 | 0.22 | 95 | 1011.3 |
| 20260507073803 | 53 | 0 | 0.0 | 0.0 | 0.00 | 0.41 | 0.10 | 93 | 1011.3 |
| 20260507073603 | 53 | 0 | 0.0 | 0.0 | 0.00 | 0.41 | 0.10 | 93 | 1011.3 |
| 20260507073403 | 49 | 34 | 0.0 | 0.0 | 0.05 | 0.53 | 0.22 | 95 | 1011.3 |
| 20260507073203 | 53 | 0 | 0.0 | 0.0 | 0.00 | 0.41 | 0.10 | 93 | 1011.3 |
| 20260507073003 | 53 | 0 | 0.0 | 0.0 | 0.00 | 0.41 | 0.10 | 93 | 1011.3 |
| 20260507072903 | 49 | 34 | 0.0 | 0.0 | 0.07 | 0.53 | 0.22 | 95 | 1011.4 |
| 20260507072803 | 53 | 0 | 0.0 | 0.0 | 0.00 | 0.41 | 0.10 | 93 | 1011.3 |
| 20260507072603 | 53 | 0 | 0.0 | 0.0 | 0.00 | 0.41 | 0.10 | 93 | 1011.3 |
| 20260507072403 | 49 | 34 | 0.0 | 0.0 | 0.08 | 0.53 | 0.22 | 95 | 1011.3 |
| 20260507072203 | 53 | 0 | 0.0 | 0.0 | 0.00 | 0.41 | 0.10 | 93 | 1011.3 |
| 20260507072003 | 53 | 0 | 0.0 | 0.0 | 0.00 | 0.41 | 0.10 | 93 | 1011.3 |
| 20260507071904 | 49 | 34 | 0.0 | 0.0 | 0.09 | 0.53 | 0.22 | 95 | 1011.4 |
| 20260507071804 | 53 | 0 | 0.0 | 0.0 | 0.00 | 0.41 | 0.10 | 93 | 1011.3 |
| 20260507071404 | 53 | 0 | 0.0 | 0.0 | 0.00 | 0.41 | 0.10 | 93 | 1011.3 |
| 20260507071203 | 53 | 0 | 0.0 | 0.0 | 0.00 | 0.41 | 0.10 | 93 | 1011.3 |
| 20260507071003 | 53 | 0 | 0.0 | 0.0 | 0.00 | 0.41 | 0.10 | 93 | 1011.3 |
| 20260507070903 | 49 | 34 | 0.0 | 0.0 | 0.09 | 0.53 | 0.22 | 94 | 1011.5 |
| 20260507070604 | 53 | 0 | 0.0 | 0.0 | 0.00 | 0.41 | 0.10 | 93 | 1011.3 |
| 20260507070404 | 53 | 0 | 0.0 | 0.0 | 0.00 | 0.41 | 0.10 | 93 | 1011.3 |
| 20260507070203 | 53 | 0 | 0.0 | 0.0 | 0.00 | 0.41 | 0.10 | 93 | 1011.3 |
| 20260507070008 | 53 | 0 | 0.0 | 0.0 | 0.00 | 0.41 | 0.10 | 93 | 1011.3 |
| 20260507065903 | 49 | 34 | 0.0 | 0.0 | 0.10 | 0.52 | 0.21 | 94 | 1011.8 |
| 20260507065803 | 53 | 0 | 0.0 | 0.0 | 0.00 | 0.41 | 0.10 | 93 | 1011.3 |
| 20260507065603 | 53 | 0 | 0.0 | 0.0 | 0.00 | 0.41 | 0.10 | 93 | 1011.3 |
| 20260507065404 | 53 | 0 | 0.0 | 0.0 | 0.00 | 0.41 | 0.10 | 93 | 1011.3 |
| 20260507065203 | 53 | 0 | 0.0 | 0.0 | 0.00 | 0.41 | 0.10 | 93 | 1011.3 |
| 20260507065004 | 53 | 0 | 0.0 | 0.0 | 0.00 | 0.41 | 0.10 | 93 | 1011.3 |
| 20260507064903 | 50 | 34 | 0.0 | 0.0 | 0.10 | 0.51 | 0.20 | 93 | 1011.6 |
| 20260507064803 | 53 | 0 | 0.0 | 0.0 | 0.00 | 0.41 | 0.10 | 93 | 1011.3 |
| 20260507064603 | 53 | 0 | 0.0 | 0.0 | 0.00 | 0.41 | 0.10 | 93 | 1011.3 |
| 20260507064403 | 53 | 0 | 0.0 | 0.0 | 0.00 | 0.41 | 0.10 | 93 | 1011.3 |
| 20260507064204 | 53 | 0 | 0.0 | 0.0 | 0.00 | 0.41 | 0.10 | 93 | 1011.3 |
| 20260507063605 | 53 | 0 | 0.0 | 0.0 | 0.00 | 0.41 | 0.10 | 93 | 1011.3 |
| 20260507063403 | 51 | 349 | 0.0 | 0.0 | 0.07 | 0.48 | 0.17 | 93 | 1011.8 |
| 20260507063204 | 53 | 0 | 0.0 | 0.0 | 0.00 | 0.41 | 0.10 | 93 | 1011.3 |
| 20260507063003 | 53 | 0 | 0.0 | 0.0 | 0.00 | 0.41 | 0.10 | 93 | 1011.3 |
| 20260507062903 | 51 | 348 | 0.0 | 0.0 | 0.05 | 0.46 | 0.15 | 93 | 1011.9 |
| 20260507062803 | 53 | 0 | 0.0 | 0.0 | 0.00 | 0.41 | 0.10 | 93 | 1011.3 |
| 20260507062603 | 53 | 0 | 0.0 | 0.0 | 0.00 | 0.41 | 0.10 | 93 | 1011.3 |
| 20260507062203 | 53 | 0 | 0.0 | 0.0 | 0.00 | 0.41 | 0.10 | 93 | 1011.3 |
| 20260507061903 | 51 | 348 | 0.0 | 0.0 | 0.03 | 0.44 | 0.13 | 94 | 1012.0 |
| 20260507061804 | 53 | 0 | 0.0 | 0.0 | 0.00 | 0.41 | 0.10 | 93 | 1011.3 |
| 20260507061604 | 53 | 0 | 0.0 | 0.0 | 0.00 | 0.41 | 0.10 | 93 | 1011.3 |
| 20260507061404 | 52 | 302 | 0.0 | 0.0 | 0.03 | 0.44 | 0.13 | 94 | 1011.6 |
| 20260507061204 | 53 | 0 | 0.0 | 0.0 | 0.00 | 0.41 | 0.10 | 93 | 1011.3 |
| 20260507061004 | 53 | 0 | 0.0 | 0.0 | 0.00 | 0.41 | 0.10 | 93 | 1011.3 |
| 20260507060904 | 52 | 303 | 0.0 | 0.0 | 0.03 | 0.44 | 0.13 | 94 | 1011.6 |
| 20260507060803 | 53 | 0 | 0.0 | 0.0 | 0.00 | 0.41 | 0.10 | 93 | 1011.3 |
| 20260507060604 | 53 | 0 | 0.0 | 0.0 | 0.00 | 0.41 | 0.10 | 93 | 1011.3 |
| 20260507060203 | 53 | 0 | 0.0 | 0.0 | 0.00 | 0.41 | 0.10 | 93 | 1011.3 |
| 20260507055903 | 52 | 301 | 0.0 | 0.0 | 0.01 | 0.42 | 0.11 | 93 | 1011.5 |
| 20260507055803 | 53 | 0 | 0.0 | 0.0 | 0.00 | 0.41 | 0.10 | 93 | 1011.3 |
| 20260507055403 | 53 | 0 | 0.0 | 0.0 | 0.00 | 0.41 | 0.10 | 93 | 1011.3 |
| 20260507055204 | 53 | 0 | 0.0 | 0.0 | 0.00 | 0.41 | 0.10 | 93 | 1011.3 |
| 20260507054903 | 52 | 296 | 0.0 | 0.0 | 0.00 | 0.41 | 0.10 | 93 | 1011.6 |
| 20260507054803 | 53 | 0 | 0.0 | 0.0 | 0.00 | 0.41 | 0.10 | 93 | 1011.3 |
| 20260507054604 | 53 | 0 | 0.0 | 0.0 | 0.00 | 0.41 | 0.10 | 93 | 1011.3 |
| 20260507054404 | 53 | 0 | 0.0 | 0.0 | 0.00 | 0.41 | 0.10 | 93 | 1011.3 |
| 20260507054003 | 53 | 0 | 0.0 | 0.0 | 0.00 | 0.41 | 0.10 | 93 | 1011.3 |
| 20260507053903 | 52 | 296 | 0.0 | 0.0 | 0.00 | 0.41 | 0.10 | 93 | 1011.4 |
| 20260507053803 | 53 | 0 | 0.0 | 0.0 | 0.00 | 0.41 | 0.10 | 93 | 1011.3 |
| 20260507053603 | 53 | 0 | 0.0 | 0.0 | 0.00 | 0.41 | 0.10 | 93 | 1011.3 |
| 20260507053203 | 53 | 0 | 0.0 | 0.0 | 0.01 | 0.41 | 0.10 | 93 | 1011.3 |
| 20260507053004 | 53 | 0 | 0.0 | 0.0 | 0.01 | 0.41 | 0.10 | 93 | 1011.3 |
| 20260507052903 | 52 | 295 | 0.0 | 0.0 | 0.04 | 0.41 | 0.10 | 93 | 1011.5 |
| 20260507052805 | 53 | 0 | 0.0 | 0.0 | 0.04 | 0.41 | 0.10 | 93 | 1011.3 |
| 20260507052603 | 53 | 0 | 0.0 | 0.0 | 0.05 | 0.41 | 0.10 | 93 | 1011.3 |
| 20260507052404 | 53 | 0 | 0.0 | 0.0 | 0.08 | 0.41 | 0.10 | 93 | 1011.3 |
| 20260507052203 | 53 | 0 | 0.0 | 0.0 | 0.10 | 0.41 | 0.10 | 93 | 1011.3 |
| 20260507052004 | 53 | 0 | 0.0 | 0.0 | 0.10 | 0.41 | 0.10 | 93 | 1011.3 |
| 20260507051803 | 53 | 0 | 0.0 | 0.0 | 0.10 | 0.41 | 0.10 | 93 | 1011.3 |
| 20260507051403 | 53 | 0 | 0.0 | 0.0 | 0.10 | 0.41 | 0.10 | 93 | 1011.3 |
| 20260507051203 | 53 | 0 | 0.0 | 0.0 | 0.10 | 0.41 | 0.10 | 93 | 1011.3 |
| 20260507051004 | 53 | 0 | 0.0 | 0.0 | 0.10 | 0.41 | 0.10 | 93 | 1011.3 |
| 20260507050804 | 53 | 0 | 0.0 | 0.0 | 0.10 | 0.41 | 0.10 | 94 | 1011.3 |
| 20260507050604 | 53 | 0 | 0.0 | 0.0 | 0.10 | 0.41 | 0.10 | 93 | 1011.6 |
| 20260507045904 | 53 | 277 | 0.0 | 3.0 | 0.10 | 0.41 | 0.10 | 93 | 1011.6 |
| 20260507045803 | 53 | 0 | 0.0 | 3.0 | 0.10 | 0.41 | 0.10 | 93 | 1011.5 |
| 20260507045603 | 53 | 0 | 0.0 | 2.0 | 0.10 | 0.41 | 0.10 | 93 | 1011.6 |
| 20260507045203 | 53 | 0 | 0.0 | 0.0 | 0.10 | 0.41 | 0.10 | 93 | 1011.2 |
| 20260507044903 | 53 | 292 | 0.0 | 3.0 | 0.10 | 0.41 | 0.10 | 93 | 1011.5 |
| 20260507044204 | 53 | 0 | 0.0 | 0.0 | 0.10 | 0.41 | 0.10 | 93 | 1011.2 |
| 20260507044003 | 53 | 0 | 0.0 | 0.0 | 0.11 | 0.41 | 0.10 | 93 | 1011.0 |
| 20260507043903 | 54 | 292 | 0.0 | 0.0 | 0.11 | 0.41 | 0.10 | 93 | 1011.2 |
| 20260507043803 | 54 | 0 | 0.0 | 0.0 | 0.11 | 0.41 | 0.10 | 92 | 1011.0 |
| 20260507043605 | 54 | 0 | 0.0 | 0.0 | 0.11 | 0.41 | 0.10 | 92 | 1011.1 |
| 20260507043405 | 54 | 0 | 0.0 | 0.0 | 0.10 | 0.40 | 0.09 | 92 | 1011.0 |
| 20260507043204 | 54 | 0 | 0.0 | 0.0 | 0.10 | 0.40 | 0.09 | 92 | 1010.9 |
| 20260507043003 | 54 | 0 | 0.0 | 0.0 | 0.08 | 0.38 | 0.07 | 92 | 1010.8 |
| 20260507042804 | 54 | 0 | 0.0 | 0.0 | 0.07 | 0.37 | 0.06 | 92 | 1010.8 |
| 20260507042603 | 54 | 0 | 0.0 | 0.0 | 0.05 | 0.35 | 0.04 | 92 | 1011.2 |
| 20260507042403 | 54 | 291 | 0.0 | 6.0 | 0.01 | 0.31 | 0.00 | 92 | 1011.6 |
| 20260507042204 | 54 | 0 | 0.0 | 6.0 | 0.01 | 0.31 | 0.00 | 92 | 1011.4 |
| 20260507042004 | 54 | 0 | 0.0 | 3.0 | 0.01 | 0.31 | 0.00 | 92 | 1011.3 |
| 20260507041903 | 54 | 302 | 1.0 | 3.0 | 0.01 | 0.31 | 0.00 | 92 | 1011.4 |
| 20260507041804 | 54 | 0 | 0.0 | 3.0 | 0.01 | 0.31 | 0.00 | 92 | 1011.1 |
| 20260507041603 | 54 | 0 | 0.0 | 0.0 | 0.01 | 0.31 | 0.00 | 92 | 1010.9 |
| 20260507041403 | 54 | 328 | 0.0 | 0.0 | 0.01 | 0.31 | 0.00 | 91 | 1010.9 |
| 20260507041204 | 54 | 0 | 0.0 | 0.0 | 0.01 | 0.31 | 0.00 | 91 | 1010.6 |
| 20260507041003 | 54 | 0 | 0.0 | 0.0 | 0.01 | 0.31 | 0.00 | 91 | 1010.7 |
| 20260507040904 | 54 | 328 | 0.0 | 0.0 | 0.01 | 0.31 | 0.00 | 91 | 1010.9 |
| 20260507040803 | 54 | 0 | 0.0 | 0.0 | 0.01 | 0.31 | 0.00 | 91 | 1010.7 |
| 20260507040604 | 54 | 0 | 0.0 | 0.0 | 0.02 | 0.31 | 0.00 | 91 | 1010.7 |
| 20260507040403 | 54 | 0 | 0.0 | 0.0 | 0.02 | 0.31 | 0.00 | 91 | 1010.5 |
| 20260507040203 | 54 | 0 | 0.0 | 0.0 | 0.02 | 0.31 | 0.00 | 91 | 1010.6 |
| 20260507040047 | 54 | 331 | 0.0 | 0.0 | 0.00 | 0.00 | 0.00 | 91 | 1010.7 |
| 20260507040013 | 54 | 11 | 0.0 | 0.0 | 0.00 | 0.00 | 0.31 | 91 | 1010.7 |
| 20260507040005 | 54 | 0 | 0.0 | 0.0 | 0.02 | 0.31 | 0.00 | 91 | 1010.6 |
| 20260507035904 | 54 | 11 | 0.0 | 0.0 | 0.02 | 0.31 | 0.31 | 91 | 1010.9 |
| 20260507035804 | 54 | 0 | 0.0 | 0.0 | 0.02 | 0.31 | 0.31 | 91 | 1010.8 |
| 20260507035603 | 54 | 0 | 0.0 | 0.0 | 0.02 | 0.31 | 0.31 | 91 | 1010.7 |
| 20260507035404 | 54 | 0 | 0.0 | 0.0 | 0.02 | 0.31 | 0.31 | 91 | 1010.6 |
| 20260507035204 | 55 | 0 | 0.0 | 0.0 | 0.02 | 0.31 | 0.31 | 91 | 1010.6 |
| 20260507035003 | 55 | 0 | 0.0 | 0.0 | 0.02 | 0.31 | 0.31 | 91 | 1010.6 |
| 20260507034903 | 55 | 11 | 0.0 | 2.0 | 0.02 | 0.31 | 0.31 | 90 | 1010.7 |
| 20260507034803 | 55 | 0 | 0.0 | 2.0 | 0.02 | 0.31 | 0.31 | 90 | 1010.5 |
| 20260507034607 | 54 | 11 | 0.0 | 0.0 | 0.00 | 0.00 | 0.31 | 91 | 1010.6 |
| 20260507034520 | 54 | 11 | 0.0 | 0.0 | 0.00 | 0.00 | 0.31 | 91 | 1010.6 |
| 20260507034404 | 55 | 331 | 0.0 | 0.0 | 0.02 | 0.31 | 0.31 | 91 | 1010.8 |
| 20260507033903 | 55 | 297 | 0.0 | 3.0 | 0.01 | 0.30 | 0.30 | 91 | 1011.0 |
| 20260507033803 | 55 | 325 | 1.0 | 2.0 | 0.01 | 0.30 | 0.30 | 91 | 1010.8 |
| 20260507033605 | 55 | 0 | 1.0 | 0.0 | 0.01 | 0.30 | 0.30 | 91 | 1010.9 |
| 20260507033405 | 55 | 303 | 1.0 | 8.0 | 0.01 | 0.30 | 0.30 | 91 | 1011.1 |
| 20260507033032 | 55 | 300 | 0.0 | 0.0 | 0.00 | 0.00 | 0.30 | 92 | 1011.1 |
| 20260507032903 | 56 | 300 | 1.0 | 3.0 | 0.01 | 0.30 | 0.30 | 92 | 1010.9 |
| 20260507032804 | 56 | 0 | 0.0 | 3.0 | 0.01 | 0.30 | 0.30 | 92 | 1010.8 |
| 20260507032203 | 56 | 0 | 0.0 | 0.0 | 0.01 | 0.30 | 0.30 | 91 | 1010.3 |
| 20260507032003 | 56 | 0 | 0.0 | 0.0 | 0.01 | 0.30 | 0.30 | 91 | 1010.3 |
| 20260507031903 | 56 | 349 | 0.0 | 0.0 | 0.01 | 0.30 | 0.30 | 91 | 1010.5 |
| 20260507031804 | 56 | 0 | 0.0 | 0.0 | 0.01 | 0.30 | 0.30 | 91 | 1010.3 |
| 20260507031603 | 56 | 0 | 0.0 | 0.0 | 0.01 | 0.30 | 0.30 | 91 | 1010.3 |
| 20260507031532 | 56 | 349 | 0.0 | 0.0 | 0.00 | 0.00 | 0.30 | 91 | 1010.5 |
| 20260507031404 | 56 | 0 | 0.0 | 0.0 | 0.01 | 0.30 | 0.30 | 91 | 1010.3 |
| 20260507031205 | 57 | 0 | 0.0 | 0.0 | 0.01 | 0.30 | 0.30 | 92 | 1010.2 |
| 20260507031004 | 57 | 0 | 0.0 | 4.0 | 0.01 | 0.30 | 0.30 | 92 | 1010.5 |
| 20260507030905 | 57 | 347 | 1.0 | 3.0 | 0.01 | 0.30 | 0.30 | 92 | 1010.7 |
| 20260507030803 | 57 | 0 | 0.0 | 3.0 | 0.01 | 0.30 | 0.30 | 92 | 1010.5 |
| 20260507030604 | 57 | 0 | 0.0 | 0.0 | 0.00 | 0.29 | 0.29 | 92 | 1010.3 |
| 20260507030404 | 57 | 0 | 0.0 | 0.0 | 0.00 | 0.29 | 0.29 | 92 | 1010.2 |
| 20260507030203 | 57 | 0 | 0.0 | 0.0 | 0.00 | 0.29 | 0.29 | 91 | 1010.2 |
| 20260507030040 | 57 | 322 | 0.0 | 0.0 | 0.00 | 0.00 | 0.28 | 91 | 1010.4 |
| 20260507030004 | 57 | 0 | 0.0 | 0.0 | 0.00 | 0.29 | 0.29 | 91 | 1010.3 |
| 20260507025904 | 57 | 321 | 0.0 | 0.0 | 0.00 | 0.29 | 0.29 | 92 | 1010.5 |
| 20260507025805 | 57 | 0 | 0.0 | 0.0 | 0.00 | 0.29 | 0.29 | 92 | 1010.4 |
| 20260507025403 | 57 | 321 | 0.0 | 0.0 | 0.00 | 0.29 | 0.29 | 91 | 1010.9 |
| 20260507025003 | 58 | 0 | 1.0 | 0.0 | 0.00 | 0.29 | 0.29 | 91 | 1010.5 |
| 20260507024904 | 58 | 321 | 0.0 | 8.0 | 0.00 | 0.29 | 0.29 | 91 | 1010.7 |
| 20260507024803 | 58 | 309 | 1.0 | 4.0 | 0.00 | 0.29 | 0.29 | 91 | 1010.9 |
| 20260507024604 | 58 | 0 | 0.0 | 8.0 | 0.00 | 0.29 | 0.29 | 92 | 1010.9 |
| 20260507024543 | 58 | 321 | 0.0 | 0.0 | 0.00 | 0.00 | 0.28 | 92 | 1011.1 |
| 20260507024506 | 58 | 296 | 0.0 | 0.0 | 0.00 | 0.00 | 0.28 | 92 | 1011.0 |
| 20260507024404 | 58 | 0 | 0.0 | 0.0 | 0.00 | 0.29 | 0.29 | 92 | 1010.8 |
| 20260507024204 | 58 | 0 | 0.0 | 0.0 | 0.00 | 0.29 | 0.29 | 93 | 1010.3 |
| 20260507024004 | 58 | 0 | 0.0 | 0.0 | 0.00 | 0.29 | 0.29 | 92 | 1010.1 |
| 20260507023903 | 59 | 328 | 0.0 | 0.0 | 0.00 | 0.29 | 0.29 | 93 | 1010.2 |
| 20260507023404 | 59 | 0 | 0.0 | 0.0 | 0.00 | 0.29 | 0.29 | 93 | 1010.0 |
| 20260507023204 | 59 | 0 | 0.0 | 0.0 | 0.00 | 0.29 | 0.29 | 92 | 1010.1 |
| 20260507023049 | 58 | 329 | 0.0 | 0.0 | 0.00 | 0.00 | 0.28 | 93 | 1010.2 |
| 20260507023009 | 58 | 329 | 0.0 | 0.0 | 0.00 | 0.00 | 0.28 | 93 | 1010.1 |
| 20260507023004 | 59 | 0 | 0.0 | 0.0 | 0.00 | 0.29 | 0.29 | 93 | 1010.0 |
| 20260507022904 | 59 | 329 | 0.0 | 0.0 | 0.00 | 0.29 | 0.29 | 93 | 1010.1 |
| 20260507022804 | 59 | 0 | 0.0 | 0.0 | 0.00 | 0.29 | 0.29 | 93 | 1010.0 |
| 20260507022603 | 59 | 0 | 0.0 | 0.0 | 0.00 | 0.29 | 0.29 | 92 | 1010.1 |
| 20260507022404 | 59 | 0 | 0.0 | 0.0 | 0.00 | 0.29 | 0.29 | 92 | 1010.1 |
| 20260507022203 | 59 | 0 | 0.0 | 0.0 | 0.00 | 0.29 | 0.29 | 92 | 1010.2 |
| 20260507021903 | 59 | 326 | 0.0 | 7.0 | 0.01 | 0.29 | 0.29 | 92 | 1010.3 |
| 20260507021804 | 59 | 0 | 0.0 | 7.0 | 0.01 | 0.29 | 0.29 | 93 | 1010.2 |
| 20260507021557 | 59 | 338 | 0.0 | 0.0 | 0.00 | 0.00 | 0.28 | 93 | 1010.3 |
| 20260507021520 | 59 | 340 | 0.0 | 0.0 | 0.00 | 0.00 | 0.28 | 93 | 1010.4 |
| 20260507021404 | 59 | 340 | 0.0 | 0.0 | 0.01 | 0.29 | 0.29 | 93 | 1010.3 |
| 20260507021203 | 60 | 0 | 0.0 | 0.0 | 0.01 | 0.29 | 0.29 | 93 | 1010.1 |
| 20260507020905 | 60 | 338 | 1.0 | 3.0 | 0.01 | 0.29 | 0.29 | 93 | 1010.2 |
| 20260507020603 | 60 | 0 | 0.0 | 0.0 | 0.01 | 0.29 | 0.29 | 93 | 1010.0 |
| 20260507020404 | 60 | 0 | 0.0 | 0.0 | 0.01 | 0.29 | 0.29 | 93 | 1010.0 |
| 20260507020030 | 59 | 309 | 0.0 | 0.0 | 0.00 | 0.00 | 0.28 | 93 | 1010.2 |
| 20260507020004 | 60 | 0 | 0.0 | 7.0 | 0.01 | 0.29 | 0.29 | 93 | 1010.0 |
| 20260507015903 | 60 | 307 | 2.0 | 7.0 | 0.01 | 0.29 | 0.29 | 93 | 1010.1 |
| 20260507015804 | 60 | 0 | 0.0 | 7.0 | 0.01 | 0.29 | 0.29 | 93 | 1010.0 |
| 20260507015404 | 60 | 0 | 0.0 | 0.0 | 0.02 | 0.29 | 0.29 | 93 | 1010.1 |
| 20260507015204 | 60 | 0 | 0.0 | 0.0 | 0.05 | 0.29 | 0.29 | 93 | 1010.1 |
| 20260507015004 | 60 | 0 | 0.0 | 0.0 | 0.07 | 0.29 | 0.29 | 92 | 1010.1 |
| 20260507014904 | 60 | 296 | 0.0 | 0.0 | 0.07 | 0.29 | 0.29 | 92 | 1010.2 |
| 20260507014803 | 60 | 0 | 1.0 | 0.0 | 0.07 | 0.29 | 0.29 | 92 | 1010.1 |
| 20260507014555 | 60 | 297 | 1.0 | 0.0 | 0.00 | 0.00 | 0.28 | 93 | 1010.2 |
| 20260507014515 | 60 | 297 | 1.0 | 0.0 | 0.00 | 0.00 | 0.28 | 92 | 1010.3 |
| 20260507014404 | 61 | 0 | 1.0 | 0.0 | 0.08 | 0.29 | 0.29 | 93 | 1010.2 |
| 20260507014203 | 61 | 288 | 1.0 | 1.0 | 0.09 | 0.29 | 0.29 | 92 | 1010.1 |
| 20260507014004 | 61 | 285 | 1.0 | 4.0 | 0.09 | 0.29 | 0.29 | 92 | 1010.3 |
| 20260507013903 | 61 | 283 | 1.0 | 3.0 | 0.09 | 0.29 | 0.29 | 92 | 1010.4 |
| 20260507013804 | 61 | 0 | 0.0 | 3.0 | 0.09 | 0.29 | 0.29 | 92 | 1010.3 |
| 20260507013605 | 61 | 0 | 0.0 | 1.0 | 0.09 | 0.29 | 0.29 | 92 | 1010.3 |
| 20260507013111 | 61 | 285 | 0.0 | 0.0 | 0.00 | 0.00 | 0.28 | 92 | 1010.4 |
| 20260507013032 | 61 | 284 | 0.0 | 0.0 | 0.00 | 0.00 | 0.28 | 92 | 1010.3 |
| 20260507013005 | 61 | 0 | 0.0 | 0.0 | 0.09 | 0.29 | 0.29 | 92 | 1010.2 |
| 20260507012904 | 61 | 285 | 0.0 | 3.0 | 0.09 | 0.29 | 0.29 | 92 | 1010.3 |
| 20260507012604 | 62 | 0 | 0.0 | 3.0 | 0.09 | 0.29 | 0.29 | 93 | 1010.4 |
| 20260507012003 | 62 | 0 | 0.0 | 2.0 | 0.09 | 0.28 | 0.28 | 93 | 1010.4 |
| 20260507011903 | 62 | 295 | 0.0 | 1.0 | 0.09 | 0.28 | 0.28 | 93 | 1010.5 |
| 20260507011804 | 62 | 0 | 0.0 | 0.0 | 0.09 | 0.28 | 0.28 | 93 | 1010.4 |
| 20260507011604 | 62 | 0 | 0.0 | 1.0 | 0.09 | 0.28 | 0.28 | 93 | 1010.2 |
| 20260507011536 | 62 | 266 | 0.0 | 0.0 | 0.00 | 0.00 | 0.28 | 93 | 1010.4 |
| 20260507011403 | 62 | 300 | 0.0 | 2.0 | 0.09 | 0.28 | 0.28 | 93 | 1010.3 |
| 20260507011004 | 62 | 0 | 0.0 | 0.0 | 0.09 | 0.28 | 0.28 | 93 | 1010.2 |
| 20260507010904 | 62 | 313 | 0.0 | 0.0 | 0.09 | 0.28 | 0.28 | 93 | 1010.2 |
| 20260507010604 | 62 | 0 | 0.0 | 0.0 | 0.09 | 0.28 | 0.28 | 93 | 1010.1 |
| 20260507010405 | 62 | 0 | 0.0 | 0.0 | 0.09 | 0.28 | 0.28 | 93 | 1010.0 |
| 20260507010204 | 62 | 0 | 0.0 | 0.0 | 0.09 | 0.28 | 0.28 | 93 | 1010.0 |
| 20260507010036 | 62 | 312 | 0.0 | 0.0 | 0.00 | 0.00 | 0.28 | 93 | 1010.1 |
| 20260507010004 | 62 | 0 | 0.0 | 0.0 | 0.09 | 0.28 | 0.28 | 93 | 1010.2 |
| 20260507005903 | 62 | 312 | 0.0 | 0.0 | 0.09 | 0.28 | 0.28 | 93 | 1010.2 |
| 20260507005804 | 62 | 0 | 0.0 | 0.0 | 0.09 | 0.28 | 0.28 | 93 | 1010.1 |
| 20260507005403 | 63 | 312 | 0.0 | 3.0 | 0.07 | 0.26 | 0.26 | 92 | 1010.5 |
| 20260507005004 | 63 | 0 | 0.0 | 0.0 | 0.03 | 0.22 | 0.22 | 92 | 1010.2 |
| 20260507004803 | 63 | 0 | 0.0 | 1.0 | 0.03 | 0.22 | 0.22 | 92 | 1009.9 |
| 20260507004605 | 63 | 0 | 0.0 | 3.0 | 0.02 | 0.21 | 0.21 | 92 | 1009.9 |
| 20260507004546 | 62 | 296 | 0.0 | 0.0 | 0.00 | 0.00 | 0.21 | 92 | 1010.0 |
| 20260507004513 | 62 | 296 | 0.0 | 0.0 | 0.00 | 0.00 | 0.21 | 92 | 1009.9 |
| 20260507004404 | 63 | 0 | 0.0 | 0.0 | 0.02 | 0.21 | 0.21 | 91 | 1009.8 |
| 20260507004203 | 63 | 0 | 0.0 | 0.0 | 0.01 | 0.20 | 0.20 | 91 | 1009.8 |
| 20260507004004 | 63 | 0 | 0.0 | 0.0 | 0.01 | 0.20 | 0.20 | 91 | 1009.8 |
| 20260507003903 | 63 | 292 | 0.0 | 0.0 | 0.01 | 0.20 | 0.20 | 91 | 1009.8 |
| 20260507003804 | 63 | 0 | 0.0 | 0.0 | 0.01 | 0.20 | 0.20 | 91 | 1009.7 |
| 20260507003604 | 63 | 0 | 0.0 | 0.0 | 0.01 | 0.20 | 0.20 | 90 | 1009.6 |
| 20260507003204 | 63 | 0 | 0.0 | 0.0 | 0.01 | 0.20 | 0.20 | 90 | 1009.6 |
| 20260507003054 | 63 | 292 | 0.0 | 0.0 | 0.00 | 0.00 | 0.20 | 90 | 1009.7 |
| 20260507003019 | 63 | 291 | 0.0 | 0.0 | 0.00 | 0.00 | 0.20 | 90 | 1009.7 |
| 20260507003004 | 63 | 0 | 0.0 | 0.0 | 0.01 | 0.20 | 0.20 | 90 | 1009.6 |
| 20260507002905 | 63 | 292 | 0.0 | 0.0 | 0.01 | 0.20 | 0.20 | 90 | 1009.6 |
| 20260507002804 | 63 | 0 | 0.0 | 0.0 | 0.01 | 0.20 | 0.20 | 90 | 1009.5 |
| 20260507002604 | 63 | 0 | 0.0 | 0.0 | 0.01 | 0.20 | 0.20 | 90 | 1009.5 |
| 20260507002204 | 63 | 0 | 0.0 | 0.0 | 0.01 | 0.20 | 0.20 | 89 | 1009.5 |
| 20260507002004 | 63 | 0 | 0.0 | 0.0 | 0.00 | 0.19 | 0.19 | 89 | 1009.6 |
| 20260507001804 | 63 | 0 | 0.0 | 0.0 | 0.00 | 0.19 | 0.19 | 89 | 1009.6 |
| 20260507001604 | 64 | 0 | 0.0 | 0.0 | 0.00 | 0.19 | 0.19 | 89 | 1009.6 |
| 20260507001523 | 63 | 292 | 0.0 | 0.0 | 0.00 | 0.00 | 0.19 | 88 | 1009.7 |
| 20260507001203 | 64 | 0 | 0.0 | 0.0 | 0.00 | 0.19 | 0.19 | 88 | 1009.6 |
| 20260507001004 | 64 | 0 | 0.0 | 0.0 | 0.00 | 0.19 | 0.19 | 88 | 1009.5 |
| 20260507000904 | 63 | 292 | 0.0 | 0.0 | 0.00 | 0.19 | 0.19 | 88 | 1009.6 |
| 20260507000605 | 64 | 0 | 0.0 | 0.0 | 0.00 | 0.19 | 0.19 | 88 | 1009.5 |
| 20260507000405 | 64 | 292 | 0.0 | 0.0 | 0.00 | 0.19 | 0.19 | 88 | 1009.4 |
| 20260507000205 | 64 | 0 | 0.0 | 0.0 | 0.00 | 0.19 | 0.19 | 88 | 1009.1 |
| 20260507000032 | 63 | 292 | 0.0 | 0.0 | 0.00 | 0.00 | 0.19 | 88 | 1009.1 |
| 20260507000004 | 64 | 0 | 0.0 | 0.0 | 0.00 | 0.19 | 0.19 | 88 | 1009.1 |
| 20260506235903 | 64 | 292 | 0.0 | 0.0 | 0.00 | 0.19 | 0.19 | 88 | 1009.1 |
| 20260506235803 | 64 | 0 | 0.0 | 0.0 | 0.00 | 0.19 | 0.19 | 88 | 1008.9 |
| 20260506235605 | 64 | 0 | 0.0 | 0.0 | 0.00 | 0.19 | 0.19 | 88 | 1008.8 |
| 20260506235404 | 64 | 0 | 0.0 | 0.0 | 0.00 | 0.19 | 0.19 | 88 | 1008.9 |
| 20260506235203 | 64 | 0 | 0.0 | 0.0 | 0.00 | 0.19 | 0.19 | 88 | 1009.0 |
| 20260506235004 | 64 | 0 | 0.0 | 0.0 | 0.00 | 0.19 | 0.19 | 88 | 1009.0 |
| 20260506234904 | 64 | 292 | 0.0 | 0.0 | 0.00 | 0.19 | 0.19 | 87 | 1009.0 |
| 20260506234803 | 64 | 0 | 0.0 | 0.0 | 0.00 | 0.19 | 0.19 | 87 | 1009.0 |
| 20260506234539 | 64 | 292 | 0.0 | 0.0 | 0.00 | 0.00 | 0.19 | 87 | 1008.9 |
| 20260506234404 | 64 | 292 | 0.0 | 0.0 | 0.00 | 0.19 | 0.19 | 87 | 1009.0 |
| 20260506234203 | 64 | 0 | 0.0 | 0.0 | 0.00 | 0.19 | 0.19 | 86 | 1009.0 |
| 20260506234004 | 64 | 0 | 0.0 | 0.0 | 0.00 | 0.19 | 0.19 | 86 | 1009.0 |
| 20260506233903 | 64 | 291 | 0.0 | 0.0 | 0.00 | 0.19 | 0.19 | 86 | 1009.0 |
| 20260506233803 | 64 | 0 | 0.0 | 0.0 | 0.00 | 0.19 | 0.19 | 86 | 1008.9 |
| 20260506233604 | 64 | 0 | 0.0 | 0.0 | 0.00 | 0.19 | 0.19 | 86 | 1009.0 |
| 20260506233404 | 64 | 0 | 0.0 | 0.0 | 0.00 | 0.19 | 0.19 | 87 | 1009.0 |
| 20260506233204 | 64 | 0 | 0.0 | 0.0 | 0.00 | 0.19 | 0.19 | 87 | 1008.8 |
| 20260506233048 | 64 | 292 | 0.0 | 0.0 | 0.00 | 0.00 | 0.19 | 87 | 1008.8 |
| 20260506233005 | 64 | 0 | 0.0 | 0.0 | 0.00 | 0.19 | 0.19 | 87 | 1008.8 |
| 20260506233003 | 64 | 291 | 0.0 | 0.0 | 0.00 | 0.00 | 0.19 | 87 | 1008.8 |
| 20260506232904 | 64 | 292 | 0.0 | 0.0 | 0.00 | 0.19 | 0.19 | 87 | 1008.9 |
| 20260506232803 | 64 | 0 | 0.0 | 0.0 | 0.00 | 0.19 | 0.19 | 87 | 1008.8 |
| 20260506232604 | 64 | 0 | 0.0 | 0.0 | 0.00 | 0.19 | 0.19 | 87 | 1008.7 |
| 20260506232405 | 65 | 0 | 0.0 | 0.0 | 0.00 | 0.19 | 0.19 | 87 | 1008.7 |
| 20260506232204 | 65 | 0 | 0.0 | 0.0 | 0.00 | 0.19 | 0.19 | 86 | 1008.7 |
| 20260506232004 | 65 | 0 | 0.0 | 0.0 | 0.00 | 0.19 | 0.19 | 86 | 1008.7 |
| 20260506231903 | 65 | 259 | 0.0 | 0.0 | 0.00 | 0.19 | 0.19 | 86 | 1008.8 |
| 20260506231803 | 65 | 0 | 0.0 | 0.0 | 0.00 | 0.19 | 0.19 | 86 | 1008.7 |
| 20260506231604 | 65 | 0 | 0.0 | 0.0 | 0.00 | 0.19 | 0.19 | 87 | 1008.8 |
| 20260506231549 | 64 | 259 | 0.0 | 0.0 | 0.00 | 0.00 | 0.19 | 87 | 1008.8 |
| 20260506231503 | 64 | 259 | 0.0 | 0.0 | 0.00 | 0.00 | 0.19 | 87 | 1008.8 |
| 20260506231403 | 65 | 259 | 0.0 | 0.0 | 0.00 | 0.19 | 0.19 | 87 | 1008.9 |
| 20260506231204 | 65 | 0 | 0.0 | 0.0 | 0.00 | 0.19 | 0.19 | 87 | 1008.8 |
| 20260506230903 | 65 | 259 | 0.0 | 0.0 | 0.00 | 0.19 | 0.19 | 86 | 1008.7 |
| 20260506230803 | 65 | 0 | 0.0 | 0.0 | 0.00 | 0.19 | 0.19 | 86 | 1008.8 |
| 20260506230604 | 65 | 0 | 0.0 | 0.0 | 0.00 | 0.19 | 0.19 | 87 | 1008.9 |
| 20260506230404 | 65 | 0 | 0.0 | 0.0 | 0.00 | 0.19 | 0.19 | 86 | 1009.0 |
| 20260506230203 | 65 | 0 | 0.0 | 0.0 | 0.00 | 0.19 | 0.19 | 85 | 1009.1 |
| 20260506230053 | 65 | 185 | 0.0 | 0.0 | 0.00 | 0.00 | 0.19 | 85 | 1009.1 |
| 20260506230007 | 65 | 185 | 0.0 | 0.0 | 0.00 | 0.00 | 0.19 | 86 | 1009.1 |
| 20260506230005 | 65 | 0 | 0.0 | 0.0 | 0.00 | 0.19 | 0.19 | 86 | 1009.1 |
| 20260506225904 | 65 | 185 | 0.0 | 0.0 | 0.00 | 0.19 | 0.19 | 86 | 1009.0 |
| 20260506225804 | 65 | 0 | 0.0 | 0.0 | 0.00 | 0.19 | 0.19 | 86 | 1008.9 |
| 20260506225404 | 65 | 185 | 0.0 | 0.0 | 0.00 | 0.19 | 0.19 | 85 | 1008.8 |
| 20260506225203 | 65 | 0 | 0.0 | 0.0 | 0.00 | 0.19 | 0.19 | 86 | 1008.8 |
| 20260506225004 | 66 | 0 | 0.0 | 0.0 | 0.00 | 0.19 | 0.19 | 85 | 1008.8 |
| 20260506224904 | 65 | 185 | 0.0 | 0.0 | 0.00 | 0.19 | 0.19 | 86 | 1008.8 |
| 20260506224804 | 66 | 0 | 0.0 | 0.0 | 0.00 | 0.19 | 0.19 | 86 | 1008.8 |
| 20260506224557 | 65 | 184 | 0.0 | 0.0 | 0.00 | 0.00 | 0.19 | 85 | 1008.8 |
| 20260506224512 | 65 | 185 | 0.0 | 0.0 | 0.00 | 0.00 | 0.19 | 85 | 1008.8 |
| 20260506224404 | 66 | 0 | 0.0 | 0.0 | 0.00 | 0.19 | 0.19 | 85 | 1008.8 |
| 20260506223903 | 65 | 185 | 0.0 | 0.0 | 0.00 | 0.19 | 0.19 | 84 | 1008.8 |
| 20260506223804 | 65 | 0 | 0.0 | 0.0 | 0.00 | 0.19 | 0.19 | 84 | 1008.8 |
| 20260506223604 | 66 | 0 | 0.0 | 0.0 | 0.00 | 0.19 | 0.19 | 85 | 1008.8 |
| 20260506223405 | 66 | 0 | 0.0 | 0.0 | 0.00 | 0.19 | 0.19 | 85 | 1008.9 |
| 20260506223204 | 66 | 0 | 0.0 | 0.0 | 0.00 | 0.19 | 0.19 | 85 | 1008.9 |
| 20260506223126 | 65 | 185 | 0.0 | 0.0 | 0.00 | 0.00 | 0.19 | 85 | 1008.8 |
| 20260506223015 | 65 | 185 | 0.0 | 0.0 | 0.00 | 0.00 | 0.19 | 84 | 1008.8 |
| 20260506223003 | 66 | 0 | 0.0 | 0.0 | 0.00 | 0.19 | 0.19 | 84 | 1008.7 |
| 20260506222903 | 65 | 185 | 0.0 | 0.0 | 0.00 | 0.19 | 0.19 | 84 | 1008.7 |
| 20260506222805 | 66 | 0 | 0.0 | 0.0 | 0.00 | 0.19 | 0.19 | 84 | 1008.8 |
| 20260506222605 | 66 | 0 | 0.0 | 0.0 | 0.00 | 0.19 | 0.19 | 84 | 1008.8 |
| 20260506222404 | 66 | 0 | 0.0 | 0.0 | 0.00 | 0.19 | 0.19 | 84 | 1008.8 |
| 20260506221903 | 66 | 185 | 0.0 | 0.0 | 0.00 | 0.19 | 0.19 | 84 | 1008.9 |
| 20260506221804 | 66 | 0 | 0.0 | 0.0 | 0.00 | 0.19 | 0.19 | 84 | 1008.9 |
| 20260506221604 | 66 | 0 | 0.0 | 0.0 | 0.00 | 0.19 | 0.19 | 83 | 1008.8 |
| 20260506221602 | 65 | 185 | 0.0 | 0.0 | 0.00 | 0.00 | 0.19 | 83 | 1008.8 |
| 20260506221512 | 65 | 185 | 0.0 | 0.0 | 0.00 | 0.00 | 0.19 | 83 | 1008.8 |
| 20260506221404 | 66 | 184 | 0.0 | 0.0 | 0.00 | 0.19 | 0.19 | 83 | 1008.8 |
| 20260506221204 | 66 | 0 | 0.0 | 0.0 | 0.00 | 0.19 | 0.19 | 82 | 1008.9 |
| 20260506221004 | 66 | 0 | 0.0 | 0.0 | 0.00 | 0.19 | 0.19 | 83 | 1008.8 |
| 20260506220904 | 66 | 185 | 0.0 | 0.0 | 0.00 | 0.19 | 0.19 | 82 | 1008.8 |
| 20260506220803 | 66 | 0 | 0.0 | 0.0 | 0.00 | 0.19 | 0.19 | 81 | 1008.8 |
| 20260506220204 | 66 | 0 | 0.0 | 0.0 | 0.00 | 0.19 | 0.19 | 81 | 1008.8 |
| 20260506220019 | 66 | 184 | 0.0 | 0.0 | 0.00 | 0.00 | 0.19 | 81 | 1008.8 |
| 20260506220004 | 66 | 0 | 0.0 | 0.0 | 0.00 | 0.19 | 0.19 | 81 | 1008.8 |
| 20260506215903 | 67 | 184 | 0.0 | 0.0 | 0.00 | 0.19 | 0.19 | 81 | 1008.8 |
| 20260506215805 | 67 | 0 | 0.0 | 0.0 | 0.00 | 0.19 | 0.19 | 81 | 1008.9 |
| 20260506215605 | 67 | 0 | 0.0 | 0.0 | 0.00 | 0.19 | 0.19 | 80 | 1008.8 |
| 20260506215404 | 67 | 184 | 0.0 | 0.0 | 0.00 | 0.19 | 0.19 | 79 | 1008.7 |
| 20260506215203 | 67 | 0 | 0.0 | 0.0 | 0.00 | 0.19 | 0.19 | 79 | 1008.8 |
| 20260506215004 | 67 | 0 | 0.0 | 0.0 | 0.00 | 0.19 | 0.19 | 80 | 1008.8 |
| 20260506214903 | 67 | 234 | 0.0 | 0.0 | 0.00 | 0.19 | 0.19 | 79 | 1008.8 |
| 20260506214804 | 67 | 0 | 0.0 | 0.0 | 0.00 | 0.19 | 0.19 | 79 | 1008.6 |
| 20260506214603 | 67 | 0 | 0.0 | 0.0 | 0.00 | 0.19 | 0.19 | 79 | 1008.5 |
| 20260506214520 | 67 | 216 | 0.0 | 0.0 | 0.00 | 0.00 | 0.19 | 79 | 1008.5 |
| 20260506214404 | 67 | 0 | 0.0 | 0.0 | 0.00 | 0.19 | 0.19 | 79 | 1008.5 |
| 20260506214005 | 67 | 0 | 0.0 | 1.0 | 0.00 | 0.19 | 0.19 | 79 | 1008.5 |
| 20260506213605 | 68 | 0 | 0.0 | 0.0 | 0.00 | 0.19 | 0.19 | 80 | 1008.3 |
| 20260506213204 | 68 | 0 | 0.0 | 0.0 | 0.00 | 0.19 | 0.19 | 79 | 1008.4 |
| 20260506213023 | 67 | 259 | 0.0 | 0.0 | 0.00 | 0.00 | 0.19 | 80 | 1008.4 |
| 20260506213003 | 68 | 0 | 0.0 | 0.0 | 0.00 | 0.19 | 0.19 | 79 | 1008.4 |
| 20260506212905 | 68 | 259 | 0.0 | 0.0 | 0.00 | 0.19 | 0.19 | 79 | 1008.3 |
| 20260506212603 | 68 | 0 | 0.0 | 0.0 | 0.00 | 0.19 | 0.19 | 79 | 1008.3 |
| 20260506212404 | 68 | 0 | 0.0 | 0.0 | 0.00 | 0.19 | 0.19 | 79 | 1008.3 |
| 20260506212205 | 68 | 0 | 0.0 | 0.0 | 0.00 | 0.19 | 0.19 | 78 | 1008.4 |
| 20260506212003 | 68 | 0 | 0.0 | 0.0 | 0.00 | 0.19 | 0.19 | 77 | 1008.4 |
| 20260506211903 | 68 | 211 | 0.0 | 3.0 | 0.00 | 0.19 | 0.19 | 77 | 1008.4 |
| 20260506211804 | 68 | 0 | 0.0 | 4.0 | 0.00 | 0.19 | 0.19 | 78 | 1008.3 |
| 20260506211603 | 68 | 0 | 0.0 | 4.0 | 0.00 | 0.19 | 0.19 | 78 | 1008.3 |
| 20260506211534 | 68 | 261 | 0.0 | 0.0 | 0.00 | 0.00 | 0.19 | 79 | 1008.3 |
| 20260506211404 | 68 | 0 | 0.0 | 1.0 | 0.00 | 0.19 | 0.19 | 78 | 1008.3 |
| 20260506211204 | 68 | 0 | 0.0 | 0.0 | 0.00 | 0.19 | 0.19 | 78 | 1008.4 |
| 20260506210904 | 68 | 254 | 0.0 | 3.0 | 0.00 | 0.19 | 0.19 | 79 | 1008.3 |
| 20260506210804 | 68 | 0 | 0.0 | 0.0 | 0.00 | 0.19 | 0.19 | 79 | 1008.3 |
| 20260506210604 | 68 | 0 | 0.0 | 0.0 | 0.00 | 0.19 | 0.19 | 81 | 1008.2 |
| 20260506210403 | 68 | 210 | 0.0 | 0.0 | 0.00 | 0.19 | 0.19 | 80 | 1008.2 |
| 20260506210205 | 68 | 0 | 0.0 | 0.0 | 0.00 | 0.19 | 0.19 | 81 | 1008.1 |
| 20260506210041 | 67 | 210 | 0.0 | 0.0 | 0.00 | 0.00 | 0.19 | 81 | 1008.2 |
| 20260506210004 | 68 | 0 | 0.0 | 0.0 | 0.00 | 0.19 | 0.19 | 80 | 1008.2 |
| 20260506210001 | 67 | 210 | 0.0 | 0.0 | 0.00 | 0.00 | 0.19 | 80 | 1008.1 |
| 20260506205903 | 68 | 207 | 0.0 | 0.0 | 0.00 | 0.19 | 0.19 | 81 | 1008.1 |
| 20260506205804 | 68 | 0 | 0.0 | 0.0 | 0.00 | 0.19 | 0.19 | 81 | 1008.1 |
| 20260506205604 | 68 | 0 | 0.0 | 0.0 | 0.00 | 0.19 | 0.19 | 82 | 1008.1 |
| 20260506205404 | 67 | 0 | 0.0 | 0.0 | 0.00 | 0.19 | 0.19 | 82 | 1008.2 |
| 20260506205204 | 67 | 0 | 0.0 | 0.0 | 0.00 | 0.19 | 0.19 | 82 | 1008.2 |
| 20260506204904 | 67 | 208 | 0.0 | 0.0 | 0.00 | 0.19 | 0.19 | 81 | 1008.2 |
| 20260506204803 | 67 | 0 | 0.0 | 0.0 | 0.00 | 0.19 | 0.19 | 81 | 1008.2 |
| 20260506204545 | 67 | 208 | 0.0 | 0.0 | 0.00 | 0.00 | 0.19 | 81 | 1008.1 |
| 20260506204509 | 67 | 207 | 0.0 | 0.0 | 0.00 | 0.00 | 0.19 | 81 | 1008.1 |
| 20260506204404 | 67 | 0 | 0.0 | 0.0 | 0.00 | 0.19 | 0.19 | 83 | 1008.2 |
| 20260506204203 | 67 | 0 | 0.0 | 0.0 | 0.00 | 0.19 | 0.19 | 84 | 1008.1 |
| 20260506204004 | 67 | 0 | 0.0 | 0.0 | 0.00 | 0.19 | 0.19 | 83 | 1008.2 |
| 20260506203903 | 67 | 207 | 0.0 | 0.0 | 0.00 | 0.19 | 0.19 | 83 | 1008.2 |
| 20260506203803 | 67 | 0 | 0.0 | 0.0 | 0.00 | 0.19 | 0.19 | 83 | 1008.3 |
| 20260506203604 | 67 | 0 | 0.0 | 0.0 | 0.00 | 0.19 | 0.19 | 81 | 1008.2 |
| 20260506203404 | 67 | 292 | 0.0 | 0.0 | 0.00 | 0.19 | 0.19 | 80 | 1008.1 |
| 20260506203204 | 67 | 0 | 0.0 | 0.0 | 0.00 | 0.19 | 0.19 | 79 | 1008.2 |
| 20260506203101 | 67 | 286 | 0.0 | 0.0 | 0.00 | 0.00 | 0.19 | 80 | 1008.1 |
| 20260506203021 | 67 | 286 | 0.0 | 0.0 | 0.00 | 0.00 | 0.19 | 79 | 1008.2 |
| 20260506203004 | 67 | 0 | 0.0 | 0.0 | 0.00 | 0.19 | 0.19 | 79 | 1008.2 |
| 20260506202904 | 67 | 248 | 0.0 | 0.0 | 0.00 | 0.19 | 0.19 | 80 | 1008.2 |
| 20260506202604 | 67 | 0 | 0.0 | 0.0 | 0.00 | 0.19 | 0.19 | 81 | 1008.1 |
| 20260506202404 | 67 | 238 | 0.0 | 0.0 | 0.00 | 0.19 | 0.19 | 81 | 1008.1 |
| 20260506202004 | 67 | 0 | 0.0 | 0.0 | 0.00 | 0.19 | 0.19 | 81 | 1008.1 |
| 20260506201903 | 67 | 228 | 0.0 | 0.0 | 0.00 | 0.19 | 0.19 | 83 | 1008.0 |
| 20260506201805 | 67 | 0 | 0.0 | 0.0 | 0.00 | 0.19 | 0.19 | 83 | 1008.1 |
| 20260506201603 | 67 | 0 | 0.0 | 0.0 | 0.00 | 0.19 | 0.19 | 83 | 1008.1 |
| 20260506201525 | 66 | 229 | 0.0 | 0.0 | 0.00 | 0.00 | 0.19 | 82 | 1008.1 |
| 20260506201404 | 67 | 0 | 0.0 | 0.0 | 0.00 | 0.19 | 0.19 | 81 | 1008.1 |
| 20260506201205 | 67 | 0 | 1.0 | 0.0 | 0.00 | 0.19 | 0.19 | 84 | 1008.0 |
| 20260506200905 | 66 | 257 | 0.0 | 2.0 | 0.00 | 0.19 | 0.19 | 82 | 1008.2 |
| 20260506200604 | 66 | 0 | 0.0 | 2.0 | 0.00 | 0.19 | 0.19 | 83 | 1008.1 |
| 20260506200405 | 66 | 0 | 0.0 | 8.0 | 0.00 | 0.19 | 0.19 | 83 | 1008.1 |
| 20260506200204 | 66 | 0 | 0.0 | 8.0 | 0.00 | 0.19 | 0.19 | 83 | 1008.1 |
| 20260506200051 | 66 | 186 | 0.0 | 0.0 | 0.00 | 0.00 | 0.19 | 83 | 1008.0 |
| 20260506200004 | 66 | 0 | 0.0 | 0.0 | 0.00 | 0.19 | 0.19 | 83 | 1008.1 |
| 20260506195904 | 66 | 186 | 0.0 | 0.0 | 0.00 | 0.19 | 0.19 | 84 | 1008.1 |
| 20260506195804 | 66 | 0 | 0.0 | 0.0 | 0.00 | 0.19 | 0.19 | 84 | 1008.1 |
| 20260506195604 | 66 | 0 | 0.0 | 0.0 | 0.00 | 0.19 | 0.19 | 82 | 1008.1 |
| 20260506195405 | 66 | 184 | 0.0 | 0.0 | 0.00 | 0.19 | 0.19 | 83 | 1008.1 |
| 20260506195204 | 66 | 0 | 0.0 | 0.0 | 0.00 | 0.19 | 0.19 | 84 | 1008.2 |
| 20260506195004 | 66 | 0 | 0.0 | 0.0 | 0.00 | 0.19 | 0.19 | 83 | 1008.2 |
| 20260506194904 | 66 | 184 | 0.0 | 3.0 | 0.00 | 0.19 | 0.19 | 83 | 1008.2 |
| 20260506194803 | 66 | 0 | 0.0 | 4.0 | 0.00 | 0.19 | 0.19 | 83 | 1008.2 |
| 20260506194605 | 66 | 0 | 0.0 | 4.0 | 0.00 | 0.19 | 0.19 | 82 | 1008.2 |
| 20260506194553 | 65 | 179 | 0.0 | 0.0 | 0.00 | 0.00 | 0.19 | 82 | 1008.1 |
| 20260506194515 | 65 | 179 | 0.0 | 0.0 | 0.00 | 0.00 | 0.19 | 82 | 1008.1 |
| 20260506194404 | 66 | 0 | 0.0 | 0.0 | 0.00 | 0.19 | 0.19 | 84 | 1008.2 |
| 20260506194204 | 66 | 0 | 0.0 | 1.0 | 0.00 | 0.19 | 0.19 | 84 | 1008.2 |
| 20260506193805 | 66 | 288 | 1.0 | 4.0 | 0.00 | 0.19 | 0.19 | 82 | 1008.2 |
| 20260506193604 | 66 | 0 | 0.0 | 4.0 | 0.00 | 0.19 | 0.19 | 82 | 1008.2 |
| 20260506193205 | 66 | 0 | 0.0 | 6.0 | 0.00 | 0.19 | 0.19 | 83 | 1008.2 |
| 20260506193024 | 65 | 44 | 0.0 | 0.0 | 0.00 | 0.00 | 0.19 | 85 | 1008.2 |
| 20260506193004 | 66 | 0 | 0.0 | 2.0 | 0.00 | 0.19 | 0.19 | 85 | 1008.4 |
| 20260506192805 | 66 | 0 | 0.0 | 0.0 | 0.00 | 0.19 | 0.19 | 84 | 1008.4 |
| 20260506192604 | 65 | 337 | 1.0 | 1.0 | 0.00 | 0.19 | 0.19 | 84 | 1008.3 |
| 20260506192404 | 65 | 285 | 1.0 | 3.0 | 0.00 | 0.19 | 0.19 | 85 | 1008.3 |
| 20260506192204 | 65 | 312 | 1.0 | 8.0 | 0.00 | 0.19 | 0.19 | 83 | 1008.3 |
| 20260506192004 | 65 | 0 | 0.0 | 4.0 | 0.00 | 0.19 | 0.19 | 84 | 1008.3 |
| 20260506191904 | 65 | 329 | 1.0 | 3.0 | 0.00 | 0.19 | 0.19 | 85 | 1008.3 |
| 20260506191805 | 65 | 0 | 0.0 | 4.0 | 0.00 | 0.19 | 0.19 | 85 | 1008.4 |
| 20260506191605 | 65 | 0 | 0.0 | 2.0 | 0.00 | 0.19 | 0.19 | 86 | 1008.4 |
| 20260506191534 | 65 | 180 | 0.0 | 0.0 | 0.00 | 0.00 | 0.19 | 86 | 1008.4 |
| 20260506191404 | 65 | 178 | 1.0 | 3.0 | 0.00 | 0.19 | 0.19 | 85 | 1008.4 |
| 20260506191204 | 65 | 0 | 0.0 | 0.0 | 0.00 | 0.19 | 0.19 | 86 | 1008.5 |
| 20260506191004 | 65 | 194 | 1.0 | 2.0 | 0.00 | 0.19 | 0.19 | 87 | 1008.5 |
| 20260506190903 | 65 | 194 | 0.0 | 3.0 | 0.00 | 0.19 | 0.19 | 86 | 1008.5 |
| 20260506190804 | 65 | 194 | 1.0 | 4.0 | 0.00 | 0.19 | 0.19 | 87 | 1008.5 |
| 20260506190604 | 65 | 190 | 1.0 | 4.0 | 0.00 | 0.19 | 0.19 | 89 | 1008.5 |
| 20260506190205 | 64 | 238 | 1.0 | 8.0 | 0.00 | 0.19 | 0.19 | 87 | 1008.6 |
| 20260506190045 | 63 | 233 | 0.0 | 0.0 | 0.00 | 0.00 | 0.19 | 88 | 1008.5 |
| 20260506190009 | 63 | 229 | 0.0 | 0.0 | 0.00 | 0.00 | 0.19 | 88 | 1008.5 |
| 20260506190004 | 64 | 0 | 0.0 | 4.0 | 0.00 | 0.19 | 0.19 | 88 | 1008.7 |
| 20260506185904 | 64 | 249 | 0.0 | 3.0 | 0.00 | 0.19 | 0.19 | 92 | 1008.5 |
| 20260506185604 | 63 | 0 | 0.0 | 4.0 | 0.00 | 0.19 | 0.19 | 92 | 1008.7 |
| 20260506185404 | 62 | 0 | 0.0 | 1.0 | 0.00 | 0.19 | 0.19 | 91 | 1008.8 |
| 20260506185204 | 62 | 0 | 0.0 | 0.0 | 0.00 | 0.19 | 0.19 | 90 | 1008.8 |
| 20260506185004 | 62 | 0 | 0.0 | 0.0 | 0.00 | 0.19 | 0.19 | 91 | 1008.7 |
| 20260506184903 | 62 | 222 | 0.0 | 0.0 | 0.00 | 0.19 | 0.19 | 92 | 1008.6 |
| 20260506184805 | 62 | 0 | 0.0 | 0.0 | 0.00 | 0.19 | 0.19 | 92 | 1008.7 |
| 20260506184604 | 62 | 0 | 0.0 | 0.0 | 0.00 | 0.19 | 0.19 | 92 | 1008.7 |
| 20260506184554 | 62 | 222 | 0.0 | 0.0 | 0.00 | 0.00 | 0.19 | 92 | 1008.6 |
| 20260506184515 | 61 | 222 | 0.0 | 0.0 | 0.00 | 0.00 | 0.19 | 92 | 1008.6 |
| 20260506184204 | 62 | 0 | 0.0 | 0.0 | 0.00 | 0.19 | 0.19 | 92 | 1008.7 |
| 20260506184004 | 62 | 0 | 0.0 | 0.0 | 0.00 | 0.19 | 0.19 | 92 | 1008.7 |
| 20260506183905 | 62 | 222 | 0.0 | 0.0 | 0.00 | 0.19 | 0.19 | 92 | 1008.6 |
| 20260506183804 | 62 | 0 | 0.0 | 0.0 | 0.00 | 0.19 | 0.19 | 92 | 1008.8 |
| 20260506183604 | 62 | 0 | 0.0 | 0.0 | 0.00 | 0.19 | 0.19 | 93 | 1008.8 |
| 20260506183403 | 61 | 224 | 0.0 | 0.0 | 0.00 | 0.19 | 0.19 | 92 | 1008.7 |
| 20260506183204 | 61 | 0 | 0.0 | 0.0 | 0.00 | 0.19 | 0.19 | 92 | 1008.8 |
| 20260506183059 | 61 | 24 | 0.0 | 0.0 | 0.00 | 0.00 | 0.19 | 92 | 1008.7 |
| 20260506183024 | 61 | 155 | 0.0 | 0.0 | 0.00 | 0.00 | 0.19 | 92 | 1008.8 |
| 20260506183005 | 61 | 0 | 0.0 | 0.0 | 0.00 | 0.19 | 0.19 | 92 | 1008.8 |
| 20260506182904 | 61 | 155 | 0.0 | 0.0 | 0.00 | 0.19 | 0.19 | 92 | 1008.8 |
| 20260506182804 | 61 | 0 | 0.0 | 0.0 | 0.00 | 0.19 | 0.19 | 91 | 1008.9 |
| 20260506182604 | 61 | 0 | 0.0 | 0.0 | 0.00 | 0.19 | 0.19 | 92 | 1008.9 |
| 20260506182405 | 61 | 0 | 0.0 | 0.0 | 0.00 | 0.19 | 0.19 | 93 | 1008.9 |
| 20260506182204 | 61 | 0 | 0.0 | 0.0 | 0.00 | 0.19 | 0.19 | 92 | 1008.9 |
| 20260506182005 | 61 | 0 | 0.0 | 0.0 | 0.00 | 0.19 | 0.19 | 92 | 1008.9 |
| 20260506181904 | 61 | 152 | 0.0 | 0.0 | 0.00 | 0.19 | 0.19 | 92 | 1008.8 |
| 20260506181804 | 61 | 0 | 0.0 | 0.0 | 0.00 | 0.19 | 0.19 | 92 | 1008.9 |
| 20260506181604 | 61 | 0 | 0.0 | 0.0 | 0.00 | 0.19 | 0.19 | 92 | 1008.8 |
| 20260506181532 | 60 | 152 | 0.0 | 0.0 | 0.00 | 0.00 | 0.19 | 92 | 1008.8 |
| 20260506181404 | 61 | 152 | 0.0 | 0.0 | 0.00 | 0.19 | 0.19 | 92 | 1008.8 |
| 20260506181204 | 60 | 0 | 0.0 | 0.0 | 0.00 | 0.19 | 0.19 | 92 | 1009.1 |
| 20260506180804 | 60 | 0 | 0.0 | 0.0 | 0.00 | 0.19 | 0.19 | 92 | 1009.3 |
| 20260506180604 | 60 | 0 | 0.0 | 0.0 | 0.00 | 0.19 | 0.19 | 92 | 1009.2 |
| 20260506180404 | 60 | 0 | 0.0 | 0.0 | 0.00 | 0.19 | 0.19 | 92 | 1009.2 |
| 20260506180205 | 60 | 0 | 0.0 | 0.0 | 0.00 | 0.19 | 0.19 | 93 | 1009.2 |
| 20260506180047 | 60 | 155 | 0.0 | 0.0 | 0.00 | 0.00 | 0.19 | 92 | 1009.1 |
| 20260506180005 | 60 | 155 | 0.0 | 0.0 | 0.00 | 0.00 | 0.19 | 92 | 1009.1 |
| 20260506175804 | 60 | 0 | 0.0 | 2.0 | 0.00 | 0.19 | 0.19 | 93 | 1009.2 |
| 20260506175604 | 60 | 0 | 0.0 | 0.0 | 0.00 | 0.19 | 0.19 | 93 | 1009.2 |
| 20260506175204 | 60 | 0 | 0.0 | 0.0 | 0.00 | 0.19 | 0.19 | 92 | 1009.1 |
| 20260506175004 | 60 | 0 | 0.0 | 0.0 | 0.00 | 0.19 | 0.19 | 93 | 1009.1 |
| 20260506174903 | 60 | 202 | 0.0 | 3.0 | 0.00 | 0.19 | 0.19 | 93 | 1009.0 |
| 20260506174604 | 60 | 0 | 0.0 | 3.0 | 0.00 | 0.19 | 0.19 | 93 | 1009.2 |
| 20260506174547 | 60 | 202 | 0.0 | 0.0 | 0.00 | 0.00 | 0.19 | 93 | 1009.0 |
| 20260506174513 | 60 | 229 | 0.0 | 0.0 | 0.00 | 0.00 | 0.19 | 93 | 1009.0 |
| 20260506174204 | 60 | 0 | 0.0 | 0.0 | 0.00 | 0.19 | 0.19 | 93 | 1009.2 |
| 20260506174004 | 60 | 0 | 0.0 | 0.0 | 0.00 | 0.19 | 0.19 | 93 | 1009.2 |
| 20260506173903 | 60 | 247 | 0.0 | 0.0 | 0.00 | 0.19 | 0.19 | 93 | 1009.1 |
| 20260506173805 | 60 | 0 | 0.0 | 0.0 | 0.00 | 0.19 | 0.19 | 93 | 1009.2 |
| 20260506173604 | 60 | 0 | 0.0 | 0.0 | 0.00 | 0.19 | 0.19 | 93 | 1009.2 |
| 20260506173404 | 60 | 0 | 0.0 | 2.0 | 0.00 | 0.19 | 0.19 | 93 | 1009.2 |
| 20260506173204 | 60 | 197 | 1.0 | 4.0 | 0.00 | 0.19 | 0.19 | 93 | 1009.1 |
| 20260506173107 | 59 | 201 | 1.0 | 0.0 | 0.00 | 0.00 | 0.19 | 93 | 1009.0 |
| 20260506173016 | 59 | 201 | 1.0 | 0.0 | 0.00 | 0.00 | 0.19 | 93 | 1008.9 |
| 20260506173005 | 60 | 220 | 1.0 | 4.0 | 0.00 | 0.19 | 0.19 | 93 | 1009.1 |
| 20260506172904 | 59 | 115 | 0.0 | 3.0 | 0.00 | 0.19 | 0.19 | 93 | 1009.0 |
| 20260506172804 | 59 | 0 | 0.0 | 3.0 | 0.00 | 0.19 | 0.19 | 93 | 1009.1 |
| 20260506172404 | 59 | 0 | 0.0 | 4.0 | 0.00 | 0.19 | 0.19 | 93 | 1009.1 |
| 20260506172004 | 59 | 0 | 0.0 | 5.0 | 0.00 | 0.19 | 0.19 | 93 | 1009.2 |
| 20260506171903 | 59 | 213 | 1.0 | 5.0 | 0.00 | 0.19 | 0.19 | 94 | 1009.1 |
| 20260506171804 | 59 | 0 | 0.0 | 5.0 | 0.00 | 0.19 | 0.19 | 94 | 1009.2 |
| 20260506171605 | 59 | 0 | 0.0 | 0.0 | 0.00 | 0.19 | 0.19 | 94 | 1009.2 |
| 20260506171601 | 59 | 286 | 0.0 | 0.0 | 0.00 | 0.00 | 0.19 | 94 | 1009.0 |
| 20260506171535 | 59 | 292 | 0.0 | 0.0 | 0.00 | 0.00 | 0.19 | 94 | 1009.0 |
| 20260506171404 | 59 | 292 | 0.0 | 0.0 | 0.00 | 0.19 | 0.19 | 94 | 1009.0 |
| 20260506171204 | 59 | 0 | 0.0 | 0.0 | 0.00 | 0.19 | 0.19 | 94 | 1009.2 |
| 20260506171004 | 59 | 0 | 0.0 | 1.0 | 0.00 | 0.19 | 0.19 | 94 | 1009.1 |
| 20260506170903 | 59 | 104 | 0.0 | 1.0 | 0.00 | 0.19 | 0.19 | 94 | 1009.0 |
| 20260506170604 | 59 | 0 | 0.0 | 0.0 | 0.00 | 0.19 | 0.19 | 94 | 1009.1 |
| 20260506170204 | 59 | 0 | 0.0 | 0.0 | 0.00 | 0.19 | 0.19 | 94 | 1009.2 |
| 20260506170028 | 59 | 130 | 0.0 | 0.0 | 0.00 | 0.00 | 0.19 | 94 | 1009.1 |
| 20260506170004 | 59 | 0 | 0.0 | 0.0 | 0.00 | 0.19 | 0.19 | 94 | 1009.2 |
| 20260506165904 | 59 | 130 | 0.0 | 0.0 | 0.00 | 0.19 | 0.19 | 94 | 1009.1 |
| 20260506165404 | 59 | 132 | 0.0 | 0.0 | 0.00 | 0.19 | 0.19 | 94 | 1009.1 |
| 20260506165205 | 59 | 0 | 0.0 | 0.0 | 0.00 | 0.19 | 0.19 | 94 | 1009.3 |
| 20260506165004 | 59 | 0 | 0.0 | 0.0 | 0.00 | 0.19 | 0.19 | 93 | 1009.3 |
| 20260506164804 | 59 | 0 | 0.0 | 1.0 | 0.00 | 0.19 | 0.19 | 93 | 1009.3 |
| 20260506164537 | 58 | 225 | 0.0 | 0.0 | 0.00 | 0.00 | 0.19 | 94 | 1009.2 |
| 20260506164205 | 59 | 0 | 0.0 | 0.0 | 0.00 | 0.19 | 0.19 | 94 | 1009.3 |
| 20260506164005 | 59 | 0 | 0.0 | 0.0 | 0.01 | 0.19 | 0.19 | 94 | 1009.3 |
| 20260506163903 | 59 | 55 | 0.0 | 2.0 | 0.01 | 0.19 | 0.19 | 94 | 1009.1 |
| 20260506163604 | 59 | 0 | 0.0 | 4.0 | 0.01 | 0.19 | 0.19 | 94 | 1009.2 |
| 20260506163404 | 59 | 0 | 0.0 | 0.0 | 0.01 | 0.19 | 0.19 | 94 | 1009.3 |
| 20260506163204 | 59 | 0 | 0.0 | 0.0 | 0.01 | 0.19 | 0.19 | 94 | 1009.4 |
| 20260506163048 | 58 | 126 | 0.0 | 0.0 | 0.00 | 0.00 | 0.19 | 94 | 1009.2 |
| 20260506163017 | 58 | 126 | 0.0 | 0.0 | 0.00 | 0.00 | 0.19 | 94 | 1009.3 |
| 20260506163006 | 59 | 0 | 0.0 | 0.0 | 0.01 | 0.19 | 0.19 | 94 | 1009.5 |
| 20260506162905 | 59 | 167 | 0.0 | 3.0 | 0.01 | 0.19 | 0.19 | 93 | 1009.4 |
| 20260506162805 | 58 | 0 | 0.0 | 0.0 | 0.01 | 0.19 | 0.19 | 93 | 1009.5 |
| 20260506162604 | 58 | 0 | 0.0 | 4.0 | 0.01 | 0.19 | 0.19 | 93 | 1009.6 |
| 20260506162404 | 59 | 166 | 0.0 | 3.0 | 0.01 | 0.19 | 0.19 | 93 | 1009.4 |
| 20260506162204 | 59 | 0 | 0.0 | 3.0 | 0.01 | 0.19 | 0.19 | 93 | 1009.6 |
| 20260506162005 | 59 | 0 | 0.0 | 3.0 | 0.02 | 0.19 | 0.19 | 93 | 1009.7 |
| 20260506161903 | 59 | 195 | 0.0 | 3.0 | 0.02 | 0.19 | 0.19 | 93 | 1009.4 |
| 20260506161804 | 59 | 0 | 0.0 | 4.0 | 0.02 | 0.19 | 0.19 | 93 | 1009.6 |
| 20260506161604 | 59 | 0 | 0.0 | 4.0 | 0.02 | 0.19 | 0.19 | 93 | 1009.6 |
| 20260506161556 | 58 | 195 | 0.0 | 0.0 | 0.00 | 0.00 | 0.19 | 93 | 1009.4 |
| 20260506161521 | 58 | 195 | 0.0 | 0.0 | 0.00 | 0.00 | 0.19 | 93 | 1009.5 |
| 20260506161404 | 59 | 0 | 0.0 | 0.0 | 0.02 | 0.19 | 0.19 | 93 | 1009.6 |
| 20260506161205 | 59 | 0 | 0.0 | 4.0 | 0.02 | 0.19 | 0.19 | 93 | 1009.6 |
| 20260506161004 | 59 | 0 | 0.0 | 4.0 | 0.02 | 0.19 | 0.19 | 93 | 1009.6 |
| 20260506160903 | 59 | 295 | 0.0 | 2.0 | 0.02 | 0.19 | 0.19 | 93 | 1009.5 |
| 20260506160604 | 59 | 246 | 1.0 | 4.0 | 0.02 | 0.19 | 0.19 | 93 | 1009.6 |
| 20260506160404 | 59 | 224 | 1.0 | 3.0 | 0.02 | 0.19 | 0.19 | 93 | 1009.4 |
| 20260506160107 | 58 | 195 | 1.0 | 0.0 | 0.00 | 0.00 | 0.19 | 94 | 1009.3 |
| 20260506160018 | 59 | 192 | 1.0 | 0.0 | 0.00 | 0.00 | 0.19 | 94 | 1009.3 |
| 20260506160005 | 59 | 205 | 1.0 | 8.0 | 0.04 | 0.19 | 0.19 | 94 | 1009.5 |
| 20260506155904 | 59 | 214 | 2.0 | 8.0 | 0.04 | 0.19 | 0.19 | 94 | 1009.2 |
| 20260506155804 | 59 | 208 | 1.0 | 8.0 | 0.04 | 0.19 | 0.19 | 94 | 1009.4 |
| 20260506155604 | 59 | 0 | 1.0 | 0.0 | 0.06 | 0.19 | 0.19 | 94 | 1009.4 |
| 20260506155404 | 59 | 284 | 1.0 | 3.0 | 0.06 | 0.19 | 0.19 | 94 | 1009.3 |
| 20260506155205 | 59 | 316 | 1.0 | 10.0 | 0.06 | 0.19 | 0.19 | 94 | 1009.3 |
| 20260506155005 | 59 | 349 | 1.0 | 10.0 | 0.06 | 0.19 | 0.19 | 94 | 1009.3 |
| 20260506154904 | 59 | 160 | 0.0 | 3.0 | 0.06 | 0.19 | 0.19 | 94 | 1009.1 |
| 20260506154804 | 59 | 196 | 1.0 | 4.0 | 0.06 | 0.19 | 0.19 | 94 | 1009.4 |
| 20260506154604 | 59 | 151 | 1.0 | 4.0 | 0.07 | 0.19 | 0.19 | 94 | 1009.3 |
| 20260506154527 | 58 | 190 | 1.0 | 0.0 | 0.00 | 0.00 | 0.19 | 94 | 1009.1 |
| 20260506154405 | 59 | 145 | 1.0 | 4.0 | 0.07 | 0.19 | 0.19 | 94 | 1009.4 |
| 20260506154204 | 59 | 151 | 1.0 | 4.0 | 0.07 | 0.19 | 0.19 | 94 | 1009.4 |
| 20260506154005 | 58 | 191 | 1.0 | 2.0 | 0.06 | 0.18 | 0.18 | 94 | 1009.4 |
| 20260506153904 | 58 | 189 | 1.0 | 8.0 | 0.06 | 0.18 | 0.18 | 94 | 1009.2 |
| 20260506153605 | 58 | 0 | 0.0 | 8.0 | 0.06 | 0.18 | 0.18 | 94 | 1009.5 |
| 20260506153404 | 58 | 0 | 0.0 | 1.0 | 0.06 | 0.18 | 0.18 | 94 | 1009.6 |
| 20260506153204 | 58 | 0 | 0.0 | 0.0 | 0.06 | 0.18 | 0.18 | 93 | 1009.8 |
| 20260506153042 | 58 | 164 | 0.0 | 0.0 | 0.00 | 0.00 | 0.18 | 93 | 1009.6 |
| 20260506153004 | 58 | 0 | 0.0 | 4.0 | 0.06 | 0.18 | 0.18 | 93 | 1009.8 |
| 20260506153002 | 58 | 165 | 0.0 | 0.0 | 0.00 | 0.00 | 0.18 | 93 | 1009.6 |
| 20260506152804 | 58 | 0 | 0.0 | 0.0 | 0.06 | 0.18 | 0.18 | 93 | 1009.9 |
| 20260506152605 | 58 | 0 | 0.0 | 5.0 | 0.06 | 0.18 | 0.18 | 93 | 1010.0 |
| 20260506152404 | 58 | 191 | 1.0 | 5.0 | 0.07 | 0.18 | 0.18 | 93 | 1010.0 |
| 20260506152205 | 58 | 0 | 1.0 | 0.0 | 0.06 | 0.17 | 0.17 | 93 | 1010.1 |
| 20260506152005 | 58 | 302 | 1.0 | 1.0 | 0.06 | 0.17 | 0.17 | 93 | 1010.2 |
| 20260506151804 | 58 | 294 | 1.0 | 1.0 | 0.06 | 0.17 | 0.17 | 93 | 1010.2 |
| 20260506151604 | 58 | 206 | 1.0 | 7.0 | 0.07 | 0.17 | 0.17 | 93 | 1010.2 |
| 20260506151550 | 58 | 171 | 1.0 | 0.0 | 0.00 | 0.00 | 0.17 | 93 | 1010.0 |
| 20260506151514 | 58 | 171 | 1.0 | 0.0 | 0.00 | 0.00 | 0.17 | 93 | 1010.0 |
| 20260506151405 | 59 | 221 | 1.0 | 7.0 | 0.07 | 0.17 | 0.17 | 93 | 1010.1 |
| 20260506151204 | 59 | 162 | 1.0 | 5.0 | 0.08 | 0.17 | 0.17 | 93 | 1010.1 |
| 20260506151005 | 59 | 178 | 1.0 | 7.0 | 0.08 | 0.17 | 0.17 | 93 | 1010.2 |
| 20260506150905 | 59 | 192 | 1.0 | 3.0 | 0.08 | 0.17 | 0.17 | 93 | 1010.0 |
| 20260506150804 | 59 | 191 | 1.0 | 4.0 | 0.08 | 0.17 | 0.17 | 93 | 1010.1 |
| 20260506150604 | 59 | 186 | 1.0 | 4.0 | 0.08 | 0.17 | 0.17 | 92 | 1010.1 |
| 20260506150404 | 59 | 182 | 1.0 | 6.0 | 0.09 | 0.17 | 0.17 | 93 | 1009.9 |
| 20260506150204 | 59 | 0 | 0.0 | 6.0 | 0.08 | 0.16 | 0.16 | 93 | 1010.0 |
| 20260506150026 | 58 | 234 | 0.0 | 0.0 | 0.00 | 0.00 | 0.15 | 93 | 1009.8 |
| 20260506150005 | 59 | 0 | 0.0 | 2.0 | 0.07 | 0.15 | 0.15 | 93 | 1010.0 |
| 20260506145904 | 59 | 54 | 1.0 | 5.0 | 0.07 | 0.15 | 0.15 | 93 | 1009.9 |
| 20260506145805 | 59 | 0 | 0.0 | 5.0 | 0.06 | 0.14 | 0.14 | 93 | 1010.1 |
| 20260506145604 | 59 | 0 | 0.0 | 0.0 | 0.05 | 0.13 | 0.13 | 93 | 1010.3 |
| 20260506145404 | 59 | 0 | 0.0 | 0.0 | 0.06 | 0.13 | 0.13 | 93 | 1010.4 |
| 20260506145204 | 59 | 0 | 0.0 | 0.0 | 0.06 | 0.13 | 0.13 | 93 | 1010.4 |
| 20260506144904 | 59 | 231 | 0.0 | 2.0 | 0.06 | 0.13 | 0.13 | 93 | 1010.1 |
| 20260506144604 | 59 | 0 | 0.0 | 0.0 | 0.06 | 0.12 | 0.12 | 93 | 1010.3 |
| 20260506144530 | 59 | 217 | 0.0 | 0.0 | 0.00 | 0.00 | 0.12 | 93 | 1010.1 |
| 20260506144404 | 59 | 0 | 0.0 | 0.0 | 0.06 | 0.12 | 0.12 | 93 | 1010.3 |
| 20260506144004 | 59 | 0 | 0.0 | 0.0 | 0.07 | 0.12 | 0.12 | 93 | 1010.2 |
| 20260506143805 | 59 | 190 | 1.0 | 5.0 | 0.07 | 0.12 | 0.12 | 92 | 1010.2 |
| 20260506143605 | 59 | 176 | 1.0 | 5.0 | 0.07 | 0.12 | 0.12 | 92 | 1009.9 |
| 20260506143404 | 59 | 293 | 1.0 | 1.0 | 0.08 | 0.12 | 0.12 | 93 | 1009.9 |
| 20260506143204 | 59 | 272 | 1.0 | 4.0 | 0.08 | 0.12 | 0.12 | 92 | 1009.8 |
| 20260506143039 | 59 | 349 | 1.0 | 0.0 | 0.00 | 0.00 | 0.12 | 92 | 1009.7 |
| 20260506143008 | 59 | 131 | 1.0 | 0.0 | 0.00 | 0.00 | 0.12 | 92 | 1009.8 |
| 20260506143005 | 59 | 219 | 1.0 | 6.0 | 0.08 | 0.12 | 0.12 | 92 | 1010.0 |
| 20260506142804 | 59 | 0 | 0.0 | 5.0 | 0.08 | 0.12 | 0.12 | 92 | 1009.9 |
| 20260506141905 | 59 | 204 | 1.0 | 5.0 | 0.08 | 0.11 | 0.11 | 92 | 1009.6 |
| 20260506141804 | 59 | 0 | 0.0 | 5.0 | 0.07 | 0.10 | 0.10 | 92 | 1009.9 |
| 20260506141550 | 59 | 184 | 0.0 | 0.0 | 0.00 | 0.00 | 0.10 | 92 | 1009.8 |
| 20260506141514 | 59 | 184 | 0.0 | 0.0 | 0.00 | 0.00 | 0.10 | 92 | 1009.7 |
| 20260506141406 | 59 | 0 | 0.0 | 0.0 | 0.08 | 0.10 | 0.10 | 92 | 1010.0 |
| 20260506141005 | 59 | 0 | 0.0 | 9.0 | 0.07 | 0.09 | 0.09 | 92 | 1010.0 |
| 20260506140904 | 59 | 207 | 1.0 | 9.0 | 0.07 | 0.09 | 0.09 | 92 | 1009.9 |
| 20260506140605 | 59 | 0 | 1.0 | 0.0 | 0.08 | 0.09 | 0.09 | 92 | 1010.3 |